Observation data for Lesley on 09/17/2019      Previous  Date       Current Mesonet Observations  Soil Data  Daily Summary Page  Observations in Plain Language
KLE1 170500Z 14004KT 24/16 A3001 RMK A01 T02440156  RH  058%=      5-min Rain = 0
KLE1 170501Z 14004KT 24/16 A3001 RMK A01 T02440156  RH  058%=      5-min Rain = 0
KLE1 170502Z 15004KT 24/16 A3001 RMK A01 T02440156  RH  058%=      5-min Rain = 0
KLE1 170503Z 15004KT 24/16 A3001 RMK A01 T02440156  RH  058%=      5-min Rain = 0
KLE1 170504Z 15004KT 24/16 A3001 RMK A01 T02440156  RH  058%=      5-min Rain = 0
KLE1 170505Z 15004KT 24/16 A3001 RMK A01 T02440156  RH  058%=      5-min Rain = 0
KLE1 170506Z 15004KT 24/16 A3001 RMK A01 T02440156  RH  058%=      5-min Rain = 0
KLE1 170507Z 15004KT 25/16 A3001 RMK A01 T02450156  RH  058%=      5-min Rain = 0
KLE1 170508Z 14004KT 25/16 A3001 RMK A01 T02450156  RH  058%=      5-min Rain = 0
KLE1 170509Z 14004KT 25/16 A3001 RMK A01 T02450156  RH  058%=      5-min Rain = 0
KLE1 170510Z 14004KT 25/16 A3001 RMK A01 T02450156  RH  058%=      5-min Rain = 0
KLE1 170511Z 14004KT 25/16 A3002 RMK A01 T02450156  RH  058%=      5-min Rain = 0
KLE1 170512Z 14004KT 25/16 A3002 RMK A01 T02450156  RH  058%=      5-min Rain = 0
KLE1 170513Z 13004KT 25/16 A3002 RMK A01 T02450157  RH  058%=      5-min Rain = 0
KLE1 170514Z 13004KT 25/16 A3002 RMK A01 T02450157  RH  058%=      5-min Rain = 0
KLE1 170515Z 12004KT 24/16 A3001 RMK A01 T02440157  RH  058%=      5-min Rain = 0
KLE1 170516Z 12004KT 24/16 A3001 RMK A01 T02440157  RH  058%=      5-min Rain = 0
KLE1 170517Z 11003KT 24/16 A3001 RMK A01 T02430156  RH  058%=      5-min Rain = 0
KLE1 170518Z 11003KT 24/16 A3001 RMK A01 T02420155  RH  058%=      5-min Rain = 0
KLE1 170519Z 11003KT 24/15 A3001 RMK A01 T02410153  RH  058%=      5-min Rain = 0
KLE1 170520Z 11003KT 24/15 A3001 RMK A01 T02410154  RH  058%=      5-min Rain = 0
KLE1 170521Z 10003KT 24/15 A3001 RMK A01 T02400154  RH  058%=      5-min Rain = 0
KLE1 170522Z 09003KT 24/15 A3001 RMK A01 T02390154  RH  059%=      5-min Rain = 0
KLE1 170523Z 09003KT 24/15 A3001 RMK A01 T02390154  RH  059%=      5-min Rain = 0
KLE1 170524Z 09003KT 24/15 A3001 RMK A01 T02380154  RH  059%=      5-min Rain = 0
KLE1 170525Z 09003KT 24/15 A3001 RMK A01 T02370153  RH  059%=      5-min Rain = 0
KLE1 170526Z 08003KT 24/15 A3001 RMK A01 T02370153  RH  059%=      5-min Rain = 0
KLE1 170527Z 08003KT 24/15 A3001 RMK A01 T02360153  RH  060%=      5-min Rain = 0
KLE1 170528Z 08003KT 24/15 A3001 RMK A01 T02360154  RH  060%=      5-min Rain = 0
KLE1 170529Z 08003KT 24/15 A3001 RMK A01 T02360153  RH  060%=      5-min Rain = 0
KLE1 170530Z 08003KT 24/15 A3001 RMK A01 T02360153  RH  060%=      5-min Rain = 0
KLE1 170531Z 07003KT 24/15 A3001 RMK A01 T02360153  RH  060%=      5-min Rain = 0
KLE1 170532Z 06004KT 24/15 A3001 RMK A01 T02360153  RH  060%=      5-min Rain = 0
KLE1 170533Z 06004KT 24/15 A3001 RMK A01 T02360153  RH  060%=      5-min Rain = 0
KLE1 170534Z 06004KT 24/15 A3001 RMK A01 T02350154  RH  060%=      5-min Rain = 0
KLE1 170535Z 06004KT 23/16 A3001 RMK A01 T02340155  RH  061%=      5-min Rain = 0
KLE1 170536Z 06004KT 23/15 A3001 RMK A01 T02340154  RH  061%=      5-min Rain = 0
KLE1 170537Z 06004KT 23/16 A3001 RMK A01 T02340155  RH  061%=      5-min Rain = 0
KLE1 170538Z 06004KT 23/16 A3001 RMK A01 T02330155  RH  061%=      5-min Rain = 0
KLE1 170539Z 06004KT 23/16 A3001 RMK A01 T02330155  RH  062%=      5-min Rain = 0
KLE1 170540Z 06004KT 23/16 A3001 RMK A01 T02330155  RH  062%=      5-min Rain = 0
KLE1 170541Z 07005KT 23/16 A3001 RMK A01 T02330155  RH  062%=      5-min Rain = 0
KLE1 170542Z 07005KT 23/16 A3001 RMK A01 T02330155  RH  062%=      5-min Rain = 0
KLE1 170543Z 07005KT 23/16 A3001 RMK A01 T02320155  RH  062%=      5-min Rain = 0
KLE1 170544Z 07005KT 23/16 A3001 RMK A01 T02320155  RH  062%=      5-min Rain = 0
KLE1 170545Z 07004KT 23/16 A3001 RMK A01 T02320155  RH  062%=      5-min Rain = 0
KLE1 170546Z 07004KT 23/16 A3001 RMK A01 T02310155  RH  062%=      5-min Rain = 0
KLE1 170547Z 07004KT 23/16 A3001 RMK A01 T02310155  RH  062%=      5-min Rain = 0
KLE1 170548Z 07003KT 23/16 A3001 RMK A01 T02310156  RH  063%=      5-min Rain = 0
KLE1 170549Z 08003KT 23/16 A3001 RMK A01 T02310156  RH  063%=      5-min Rain = 0
KLE1 170550Z 08003KT 23/16 A3001 RMK A01 T02310156  RH  063%=      5-min Rain = 0
KLE1 170551Z 08003KT 23/16 A3001 RMK A01 T02320157  RH  062%=      5-min Rain = 0
KLE1 170552Z 09003KT 23/16 A3001 RMK A01 T02340157  RH  062%=      5-min Rain = 0
KLE1 170553Z 09003KT 23/16 A3001 RMK A01 T02340157  RH  062%=      5-min Rain = 0
KLE1 170554Z 09003KT 24/16 A3001 RMK A01 T02350158  RH  062%=      5-min Rain = 0
KLE1 170555Z 08003KT 24/16 A3001 RMK A01 T02360157  RH  061%=      5-min Rain = 0
KLE1 170556Z 08003KT 24/16 A3001 RMK A01 T02360157  RH  061%=      5-min Rain = 0
KLE1 170557Z 08004KT 24/16 A3001 RMK A01 T02360157  RH  061%=      5-min Rain = 0
KLE1 170558Z 09004KT 24/16 A3001 RMK A01 T02360158  RH  061%=      5-min Rain = 0
KLE1 170559Z 08003KT 24/16 A3001 RMK A01 T02370158  RH  061%=      5-min Rain = 0
KLE1 170600Z 09003KT 24/16 A3001 RMK A01 T02360158  RH  061%=      5-min Rain = 0
KLE1 170601Z 10003KT 24/16 A3001 RMK A01 T02360157  RH  061%=      5-min Rain = 0
KLE1 170602Z 09003KT 24/16 A3001 RMK A01 T02360158  RH  062%=      5-min Rain = 0
KLE1 170603Z 09003KT 24/16 A3001 RMK A01 T02360158  RH  061%=      5-min Rain = 0
KLE1 170604Z 08003KT 24/16 A3001 RMK A01 T02360157  RH  061%=      5-min Rain = 0
KLE1 170605Z 08003KT 24/16 A3001 RMK A01 T02360158  RH  061%=      5-min Rain = 0
KLE1 170606Z 08003KT 24/16 A3001 RMK A01 T02360157  RH  061%=      5-min Rain = 0
KLE1 170607Z 08003KT 24/16 A3001 RMK A01 T02350157  RH  061%=      5-min Rain = 0
KLE1 170608Z 08003KT 24/16 A3001 RMK A01 T02350157  RH  062%=      5-min Rain = 0
KLE1 170609Z 08004KT 23/16 A3001 RMK A01 T02340157  RH  062%=      5-min Rain = 0
KLE1 170610Z 08004KT 23/16 A3001 RMK A01 T02330157  RH  062%=      5-min Rain = 0
KLE1 170611Z 08004KT 23/16 A3001 RMK A01 T02330157  RH  062%=      5-min Rain = 0
KLE1 170612Z 08004KT 23/16 A3001 RMK A01 T02320157  RH  063%=      5-min Rain = 0
KLE1 170613Z 08004KT 23/16 A3001 RMK A01 T02320158  RH  063%=      5-min Rain = 0
KLE1 170614Z 08004KT 23/16 A3001 RMK A01 T02320157  RH  063%=      5-min Rain = 0
KLE1 170615Z 08004KT 23/16 A3001 RMK A01 T02310157  RH  063%=      5-min Rain = 0
KLE1 170616Z 09004KT 23/16 A3001 RMK A01 T02300156  RH  063%=      5-min Rain = 0
KLE1 170617Z 09004KT 23/16 A3001 RMK A01 T02300156  RH  063%=      5-min Rain = 0
KLE1 170618Z 09004KT 23/16 A3001 RMK A01 T02290157  RH  064%=      5-min Rain = 0
KLE1 170619Z 09004KT 23/16 A3001 RMK A01 T02290157  RH  064%=      5-min Rain = 0
KLE1 170620Z 09005KT 23/16 A3001 RMK A01 T02290157  RH  064%=      5-min Rain = 0
KLE1 170621Z 09005KT 23/16 A3001 RMK A01 T02290157  RH  064%=      5-min Rain = 0
KLE1 170622Z 09005KT 23/16 A3001 RMK A01 T02280157  RH  064%=      5-min Rain = 0
KLE1 170623Z 09005KT 23/16 A3001 RMK A01 T02270157  RH  064%=      5-min Rain = 0
KLE1 170624Z 08005KT 23/16 A3001 RMK A01 T02270157  RH  065%=      5-min Rain = 0
KLE1 170625Z 09005KT 23/16 A3001 RMK A01 T02260157  RH  065%=      5-min Rain = 0
KLE1 170626Z 09005KT 23/16 A3001 RMK A01 T02250157  RH  065%=      5-min Rain = 0
KLE1 170627Z 09005KT 23/16 A3001 RMK A01 T02250157  RH  066%=      5-min Rain = 0
KLE1 170628Z 09005KT 23/16 A3001 RMK A01 T02250158  RH  066%=      5-min Rain = 0
KLE1 170629Z 09005KT 23/16 A3001 RMK A01 T02250158  RH  066%=      5-min Rain = 0
KLE1 170630Z 09005KT 23/16 A3001 RMK A01 T02250158  RH  066%=      5-min Rain = 0
KLE1 170631Z 09005KT 23/16 A3001 RMK A01 T02250158  RH  066%=      5-min Rain = 0
KLE1 170632Z 10005KT 23/16 A3001 RMK A01 T02250159  RH  066%=      5-min Rain = 0
KLE1 170633Z 10005KT 23/16 A3001 RMK A01 T02250158  RH  066%=      5-min Rain = 0
KLE1 170634Z 10005KT 22/16 A3001 RMK A01 T02240158  RH  066%=      5-min Rain = 0
KLE1 170635Z 10005KT 22/16 A3001 RMK A01 T02240157  RH  066%=      5-min Rain = 0
KLE1 170636Z 11005KT 22/16 A3001 RMK A01 T02240158  RH  066%=      5-min Rain = 0
KLE1 170637Z 11005KT 22/16 A3001 RMK A01 T02240158  RH  066%=      5-min Rain = 0
KLE1 170638Z 11005KT 22/16 A3001 RMK A01 T02240157  RH  066%=      5-min Rain = 0
KLE1 170639Z 11006KT 22/16 A3001 RMK A01 T02240157  RH  066%=      5-min Rain = 0
KLE1 170640Z 11005KT 22/16 A3001 RMK A01 T02230157  RH  066%=      5-min Rain = 0
KLE1 170641Z 11005KT 22/16 A3001 RMK A01 T02230156  RH  066%=      5-min Rain = 0
KLE1 170642Z 11005KT 22/16 A3001 RMK A01 T02230156  RH  066%=      5-min Rain = 0
KLE1 170643Z 12006KT 22/16 A3001 RMK A01 T02230156  RH  066%=      5-min Rain = 0
KLE1 170644Z 12005KT 22/16 A3001 RMK A01 T02220156  RH  066%=      5-min Rain = 0
KLE1 170645Z 12005KT 22/16 A3001 RMK A01 T02230156  RH  066%=      5-min Rain = 0
KLE1 170646Z 12005KT 22/16 A3001 RMK A01 T02230156  RH  066%=      5-min Rain = 0
KLE1 170647Z 12006KT 22/16 A3001 RMK A01 T02240156  RH  065%=      5-min Rain = 0
KLE1 170648Z 12006KT 22/16 A3001 RMK A01 T02240156  RH  065%=      5-min Rain = 0
KLE1 170649Z 12006KT 23/16 A3001 RMK A01 T02250156  RH  065%=      5-min Rain = 0
KLE1 170650Z 12006KT 23/16 A3001 RMK A01 T02250156  RH  065%=      5-min Rain = 0
KLE1 170651Z 12006KT 23/16 A3001 RMK A01 T02250156  RH  065%=      5-min Rain = 0
KLE1 170652Z 12006KT 23/16 A3001 RMK A01 T02260157  RH  065%=      5-min Rain = 0
KLE1 170653Z 12006KT 23/16 A3001 RMK A01 T02260156  RH  065%=      5-min Rain = 0
KLE1 170654Z 12006KT 23/16 A3001 RMK A01 T02260156  RH  065%=      5-min Rain = 0
KLE1 170655Z 12006KT 23/16 A3001 RMK A01 T02260157  RH  065%=      5-min Rain = 0
KLE1 170656Z 11006KT 23/16 A3001 RMK A01 T02260157  RH  065%=      5-min Rain = 0
KLE1 170657Z 11006KT 23/16 A3001 RMK A01 T02260157  RH  065%=      5-min Rain = 0
KLE1 170658Z 11006KT 23/16 A3001 RMK A01 T02250156  RH  065%=      5-min Rain = 0
KLE1 170659Z 11006KT 23/16 A3001 RMK A01 T02250156  RH  065%=      5-min Rain = 0
KLE1 170700Z 11006KT 23/16 A3001 RMK A01 T02250156  RH  065%=      5-min Rain = 0
KLE1 170701Z 11006KT 22/16 A3001 RMK A01 T02240156  RH  065%=      5-min Rain = 0
KLE1 170702Z 11006KT 22/16 A3001 RMK A01 T02240156  RH  065%=      5-min Rain = 0
KLE1 170703Z 11006KT 22/16 A3001 RMK A01 T02230155  RH  065%=      5-min Rain = 0
KLE1 170704Z 11006KT 22/16 A3001 RMK A01 T02220155  RH  066%=      5-min Rain = 0
KLE1 170705Z 10006KT 22/16 A3001 RMK A01 T02210155  RH  066%=      5-min Rain = 0
KLE1 170706Z 10005KT 22/16 A3001 RMK A01 T02210155  RH  066%=      5-min Rain = 0
KLE1 170707Z 09005KT 22/16 A3001 RMK A01 T02200155  RH  066%=      5-min Rain = 0
KLE1 170708Z 08005KT 22/16 A3001 RMK A01 T02190155  RH  067%=      5-min Rain = 0
KLE1 170709Z 08005KT 22/16 A3001 RMK A01 T02190155  RH  067%=      5-min Rain = 0
KLE1 170710Z 08005KT 22/15 A3001 RMK A01 T02190154  RH  067%=      5-min Rain = 0
KLE1 170711Z 08005KT 22/16 A3001 RMK A01 T02190156  RH  067%=      5-min Rain = 0
KLE1 170712Z 08005KT 22/16 A3001 RMK A01 T02190156  RH  067%=      5-min Rain = 0
KLE1 170713Z 08005KT 22/16 A3001 RMK A01 T02190156  RH  068%=      5-min Rain = 0
KLE1 170714Z 08005KT 22/16 A3001 RMK A01 T02190157  RH  068%=      5-min Rain = 0
KLE1 170715Z 07005KT 22/16 A3001 RMK A01 T02190158  RH  068%=      5-min Rain = 0
KLE1 170716Z 07005KT 22/16 A3001 RMK A01 T02190158  RH  068%=      5-min Rain = 0
KLE1 170717Z 07004KT 22/16 A3001 RMK A01 T02200159  RH  068%=      5-min Rain = 0
KLE1 170718Z 08004KT 22/16 A3001 RMK A01 T02200160  RH  068%=      5-min Rain = 0
KLE1 170719Z 08004KT 22/16 A3001 RMK A01 T02200160  RH  068%=      5-min Rain = 0
KLE1 170720Z 08004KT 22/16 A3001 RMK A01 T02200160  RH  068%=      5-min Rain = 0
KLE1 170721Z 08004KT 22/16 A3001 RMK A01 T02210160  RH  068%=      5-min Rain = 0
KLE1 170722Z 07004KT 22/16 A3001 RMK A01 T02210160  RH  068%=      5-min Rain = 0
KLE1 170723Z 08004KT 22/16 A3001 RMK A01 T02220160  RH  068%=      5-min Rain = 0
KLE1 170724Z 08004KT 22/16 A3001 RMK A01 T02220160  RH  068%=      5-min Rain = 0
KLE1 170725Z 08005KT 22/16 A3001 RMK A01 T02210160  RH  068%=      5-min Rain = 0
KLE1 170726Z 08005KT 22/16 A3001 RMK A01 T02210160  RH  068%=      5-min Rain = 0
KLE1 170727Z 07005KT 22/16 A3001 RMK A01 T02210160  RH  068%=      5-min Rain = 0
KLE1 170728Z 07005KT 22/16 A3001 RMK A01 T02210160  RH  068%=      5-min Rain = 0
KLE1 170729Z 07005KT 22/16 A3001 RMK A01 T02210160  RH  068%=      5-min Rain = 0
KLE1 170730Z 07005KT 22/16 A3001 RMK A01 T02200160  RH  068%=      5-min Rain = 0
KLE1 170731Z 07005KT 22/16 A3001 RMK A01 T02200160  RH  069%=      5-min Rain = 0
KLE1 170732Z 08005KT 22/16 A3001 RMK A01 T02200160  RH  069%=      5-min Rain = 0
KLE1 170733Z 08005KT 22/16 A3001 RMK A01 T02200160  RH  069%=      5-min Rain = 0
KLE1 170734Z 08005KT 22/16 A3001 RMK A01 T02200160  RH  069%=      5-min Rain = 0
KLE1 170735Z 09005KT 22/16 A3001 RMK A01 T02190161  RH  069%=      5-min Rain = 0
KLE1 170736Z 09005KT 22/16 A3001 RMK A01 T02190160  RH  069%=      5-min Rain = 0
KLE1 170737Z 09006KT 22/16 A3001 RMK A01 T02190161  RH  070%=      5-min Rain = 0
KLE1 170738Z 09006KT 22/16 A3001 RMK A01 T02190161  RH  070%=      5-min Rain = 0
KLE1 170739Z 09006KT 22/16 A3001 RMK A01 T02190161  RH  070%=      5-min Rain = 0
KLE1 170740Z 09006KT 22/16 A3001 RMK A01 T02190161  RH  070%=      5-min Rain = 0
KLE1 170741Z 08005KT 22/16 A3001 RMK A01 T02180161  RH  070%=      5-min Rain = 0
KLE1 170742Z 08005KT 22/16 A3001 RMK A01 T02180161  RH  070%=      5-min Rain = 0
KLE1 170743Z 08005KT 22/16 A3001 RMK A01 T02180161  RH  070%=      5-min Rain = 0
KLE1 170744Z 09005KT 22/16 A3001 RMK A01 T02170160  RH  070%=      5-min Rain = 0
KLE1 170745Z 09005KT 22/16 A3001 RMK A01 T02170161  RH  070%=      5-min Rain = 0
KLE1 170746Z 09006KT 22/16 A3001 RMK A01 T02170160  RH  070%=      5-min Rain = 0
KLE1 170747Z 09006KT 22/16 A3001 RMK A01 T02170161  RH  070%=      5-min Rain = 0
KLE1 170748Z 09006KT 22/16 A3001 RMK A01 T02170160  RH  070%=      5-min Rain = 0
KLE1 170749Z 09006KT 22/16 A3001 RMK A01 T02160161  RH  071%=      5-min Rain = 0
KLE1 170750Z 09006KT 22/16 A3001 RMK A01 T02160161  RH  071%=      5-min Rain = 0
KLE1 170751Z 09005KT 22/16 A3001 RMK A01 T02170161  RH  071%=      5-min Rain = 0
KLE1 170752Z 09005KT 22/16 A3001 RMK A01 T02170161  RH  070%=      5-min Rain = 0
KLE1 170753Z 09006KT 22/16 A3001 RMK A01 T02170161  RH  070%=      5-min Rain = 0
KLE1 170754Z 09006KT 22/16 A3001 RMK A01 T02170161  RH  071%=      5-min Rain = 0
KLE1 170755Z 09006KT 22/16 A3001 RMK A01 T02170161  RH  071%=      5-min Rain = 0
KLE1 170756Z 09005KT 22/16 A3001 RMK A01 T02170161  RH  071%=      5-min Rain = 0
KLE1 170757Z 09004KT 22/16 A3001 RMK A01 T02160161  RH  071%=      5-min Rain = 0
KLE1 170758Z 09004KT 22/16 A3001 RMK A01 T02170161  RH  071%=      5-min Rain = 0
KLE1 170759Z 09005KT 22/16 A3001 RMK A01 T02170161  RH  070%=      5-min Rain = 0
KLE1 170800Z 09005KT 22/16 A3001 RMK A01 T02170161  RH  070%=      5-min Rain = 0
KLE1 170801Z 08005KT 22/16 A3001 RMK A01 T02170162  RH  071%=      5-min Rain = 0
KLE1 170802Z 08005KT 22/16 A3001 RMK A01 T02170162  RH  071%=      5-min Rain = 0
KLE1 170803Z 08005KT 22/16 A3001 RMK A01 T02170162  RH  071%=      5-min Rain = 0
KLE1 170804Z 08005KT 22/16 A3001 RMK A01 T02170162  RH  071%=      5-min Rain = 0
KLE1 170805Z 08005KT 22/16 A3001 RMK A01 T02170162  RH  071%=      5-min Rain = 0
KLE1 170806Z 08005KT 22/16 A3001 RMK A01 T02160162  RH  071%=      5-min Rain = 0
KLE1 170807Z 08005KT 22/16 A3002 RMK A01 T02160162  RH  071%=      5-min Rain = 0
KLE1 170808Z 08005KT 22/16 A3001 RMK A01 T02160162  RH  071%=      5-min Rain = 0
KLE1 170809Z 07004KT 22/16 A3001 RMK A01 T02160162  RH  071%=      5-min Rain = 0
KLE1 170810Z 08004KT 22/16 A3001 RMK A01 T02160162  RH  071%=      5-min Rain = 0
KLE1 170811Z 08005KT 22/16 A3002 RMK A01 T02160162  RH  072%=      5-min Rain = 0
KLE1 170812Z 08005KT 22/16 A3002 RMK A01 T02150162  RH  072%=      5-min Rain = 0
KLE1 170813Z 09005KT 22/16 A3002 RMK A01 T02150162  RH  072%=      5-min Rain = 0
KLE1 170814Z 09005KT 22/16 A3001 RMK A01 T02150163  RH  072%=      5-min Rain = 0
KLE1 170815Z 09005KT 22/16 A3001 RMK A01 T02150163  RH  072%=      5-min Rain = 0
KLE1 170816Z 09005KT 22/16 A3001 RMK A01 T02150163  RH  072%=      5-min Rain = 0
KLE1 170817Z 09005KT 22/16 A3001 RMK A01 T02160163  RH  072%=      5-min Rain = 0
KLE1 170818Z 08005KT 22/16 A3001 RMK A01 T02160163  RH  072%=      5-min Rain = 0
KLE1 170819Z 08005KT 22/16 A3001 RMK A01 T02150162  RH  072%=      5-min Rain = 0
KLE1 170820Z 08006KT 22/16 A3001 RMK A01 T02150163  RH  072%=      5-min Rain = 0
KLE1 170821Z 08006KT 21/16 A3001 RMK A01 T02140162  RH  072%=      5-min Rain = 0
KLE1 170822Z 08005KT 21/16 A3001 RMK A01 T02130162  RH  072%=      5-min Rain = 0
KLE1 170823Z 08006KT 21/16 A3001 RMK A01 T02120162  RH  073%=      5-min Rain = 0
KLE1 170824Z 08006KT 21/16 A3001 RMK A01 T02120162  RH  073%=      5-min Rain = 0
KLE1 170825Z 08006KT 21/16 A3001 RMK A01 T02130163  RH  073%=      5-min Rain = 0
KLE1 170826Z 08006KT 21/16 A3001 RMK A01 T02130163  RH  073%=      5-min Rain = 0
KLE1 170827Z 08006KT 21/16 A3001 RMK A01 T02120163  RH  073%=      5-min Rain = 0
KLE1 170828Z 08006KT 21/16 A3001 RMK A01 T02120163  RH  073%=      5-min Rain = 0
KLE1 170829Z 08006KT 21/16 A3001 RMK A01 T02110162  RH  074%=      5-min Rain = 0
KLE1 170830Z 08005KT 21/16 A3001 RMK A01 T02100162  RH  074%=      5-min Rain = 0
KLE1 170831Z 09005KT 21/16 A3001 RMK A01 T02100163  RH  074%=      5-min Rain = 0
KLE1 170832Z 09005KT 21/16 A3001 RMK A01 T02110163  RH  074%=      5-min Rain = 0
KLE1 170833Z 08005KT 21/16 A3001 RMK A01 T02110163  RH  074%=      5-min Rain = 0
KLE1 170834Z 08006KT 21/16 A3001 RMK A01 T02120163  RH  074%=      5-min Rain = 0
KLE1 170835Z 08006KT 21/16 A3001 RMK A01 T02110163  RH  074%=      5-min Rain = 0
KLE1 170836Z 09007KT 21/16 A3001 RMK A01 T02110163  RH  074%=      5-min Rain = 0
KLE1 170837Z 09006KT 21/16 A3001 RMK A01 T02100162  RH  074%=      5-min Rain = 0
KLE1 170838Z 09006KT 21/16 A3001 RMK A01 T02090162  RH  074%=      5-min Rain = 0
KLE1 170839Z 09006KT 21/16 A3001 RMK A01 T02090162  RH  074%=      5-min Rain = 0
KLE1 170840Z 09006KT 21/16 A3001 RMK A01 T02090162  RH  074%=      5-min Rain = 0
KLE1 170841Z 09006KT 21/16 A3001 RMK A01 T02080162  RH  075%=      5-min Rain = 0
KLE1 170842Z 09006KT 21/16 A3001 RMK A01 T02080162  RH  075%=      5-min Rain = 0
KLE1 170843Z 09006KT 21/16 A3001 RMK A01 T02080162  RH  075%=      5-min Rain = 0
KLE1 170844Z 09005KT 21/16 A3001 RMK A01 T02090163  RH  075%=      5-min Rain = 0
KLE1 170845Z 09005KT 21/16 A3001 RMK A01 T02090163  RH  075%=      5-min Rain = 0
KLE1 170846Z 08005KT 21/16 A3001 RMK A01 T02090163  RH  075%=      5-min Rain = 0
KLE1 170847Z 08006KT 21/16 A3001 RMK A01 T02090163  RH  075%=      5-min Rain = 0
KLE1 170848Z 09005KT 21/16 A3001 RMK A01 T02100163  RH  075%=      5-min Rain = 0
KLE1 170849Z 08005KT 21/16 A3001 RMK A01 T02110164  RH  075%=      5-min Rain = 0
KLE1 170850Z 08006KT 21/16 A3001 RMK A01 T02110163  RH  074%=      5-min Rain = 0
KLE1 170851Z 08006KT 21/16 A3001 RMK A01 T02110163  RH  074%=      5-min Rain = 0
KLE1 170852Z 08006KT 21/16 A3001 RMK A01 T02100163  RH  074%=      5-min Rain = 0
KLE1 170853Z 08006KT 21/16 A3001 RMK A01 T02100163  RH  074%=      5-min Rain = 0
KLE1 170854Z 08006KT 21/16 A3001 RMK A01 T02090163  RH  075%=      5-min Rain = 0
KLE1 170855Z 08006KT 21/16 A3001 RMK A01 T02090163  RH  075%=      5-min Rain = 0
KLE1 170856Z 08006KT 21/16 A3001 RMK A01 T02090163  RH  075%=      5-min Rain = 0
KLE1 170857Z 08005KT 21/16 A3001 RMK A01 T02090163  RH  075%=      5-min Rain = 0
KLE1 170858Z 08005KT 21/16 A3001 RMK A01 T02090163  RH  075%=      5-min Rain = 0
KLE1 170859Z 08005KT 21/16 A3001 RMK A01 T02090162  RH  075%=      5-min Rain = 0
KLE1 170900Z 08005KT 21/16 A3001 RMK A01 T02090163  RH  075%=      5-min Rain = 0
KLE1 170901Z 08005KT 21/16 A3001 RMK A01 T02090163  RH  075%=      5-min Rain = 0
KLE1 170902Z 07006KT 21/16 A3001 RMK A01 T02090163  RH  075%=      5-min Rain = 0
KLE1 170903Z 08006KT 21/16 A3001 RMK A01 T02090164  RH  075%=      5-min Rain = 0
KLE1 170904Z 08006KT 21/16 A3001 RMK A01 T02090164  RH  075%=      5-min Rain = 0
KLE1 170905Z 08006KT 21/16 A3001 RMK A01 T02080163  RH  075%=      5-min Rain = 0
KLE1 170906Z 08006KT 21/16 A3001 RMK A01 T02080163  RH  075%=      5-min Rain = 0
KLE1 170907Z 08006KT 21/16 A3001 RMK A01 T02080163  RH  075%=      5-min Rain = 0
KLE1 170908Z 08006KT 21/16 A3001 RMK A01 T02080163  RH  075%=      5-min Rain = 0
KLE1 170909Z 08006KT 21/16 A3001 RMK A01 T02080163  RH  075%=      5-min Rain = 0
KLE1 170910Z 07006KT 21/16 A3001 RMK A01 T02080163  RH  076%=      5-min Rain = 0
KLE1 170911Z 07006KT 21/16 A3001 RMK A01 T02080164  RH  076%=      5-min Rain = 0
KLE1 170912Z 07006KT 21/16 A3001 RMK A01 T02080164  RH  076%=      5-min Rain = 0
KLE1 170913Z 07006KT 21/16 A3001 RMK A01 T02080163  RH  075%=      5-min Rain = 0
KLE1 170914Z 07006KT 21/16 A3001 RMK A01 T02080163  RH  076%=      5-min Rain = 0
KLE1 170915Z 07006KT 21/16 A3001 RMK A01 T02080163  RH  075%=      5-min Rain = 0
KLE1 170916Z 08006KT 21/16 A3001 RMK A01 T02080163  RH  075%=      5-min Rain = 0
KLE1 170917Z 07006KT 21/16 A3001 RMK A01 T02080163  RH  075%=      5-min Rain = 0
KLE1 170918Z 07006KT 21/16 A3001 RMK A01 T02080163  RH  075%=      5-min Rain = 0
KLE1 170919Z 07006KT 21/16 A3001 RMK A01 T02080163  RH  076%=      5-min Rain = 0
KLE1 170920Z 07006KT 21/16 A3001 RMK A01 T02080163  RH  075%=      5-min Rain = 0
KLE1 170921Z 07006KT 21/16 A3001 RMK A01 T02070163  RH  076%=      5-min Rain = 0
KLE1 170922Z 07006KT 21/16 A3001 RMK A01 T02070163  RH  076%=      5-min Rain = 0
KLE1 170923Z 07006KT 21/16 A3001 RMK A01 T02070163  RH  076%=      5-min Rain = 0
KLE1 170924Z 07007KT 21/16 A3001 RMK A01 T02070163  RH  076%=      5-min Rain = 0
KLE1 170925Z 07007KT 21/16 A3001 RMK A01 T02070163  RH  076%=      5-min Rain = 0
KLE1 170926Z 07007KT 21/16 A3001 RMK A01 T02070163  RH  076%=      5-min Rain = 0
KLE1 170927Z 07007KT 21/16 A3001 RMK A01 T02070163  RH  076%=      5-min Rain = 0
KLE1 170928Z 07006KT 21/16 A3001 RMK A01 T02070163  RH  076%=      5-min Rain = 0
KLE1 170929Z 07006KT 21/16 A3001 RMK A01 T02070164  RH  076%=      5-min Rain = 0
KLE1 170930Z 08006KT 21/16 A3001 RMK A01 T02060163  RH  076%=      5-min Rain = 0
KLE1 170931Z 08006KT 21/16 A3001 RMK A01 T02060164  RH  076%=      5-min Rain = 0
KLE1 170932Z 08006KT 21/16 A3001 RMK A01 T02060163  RH  077%=      5-min Rain = 0
KLE1 170933Z 07006KT 21/16 A3001 RMK A01 T02060163  RH  077%=      5-min Rain = 0
KLE1 170934Z 07006KT 21/16 A3001 RMK A01 T02050163  RH  077%=      5-min Rain = 0
KLE1 170935Z 07007KT 21/16 A3001 RMK A01 T02050163  RH  077%=      5-min Rain = 0
KLE1 170936Z 07007KT 21/16 A3001 RMK A01 T02050163  RH  077%=      5-min Rain = 0
KLE1 170937Z 07007KT 21/16 A3001 RMK A01 T02050163  RH  077%=      5-min Rain = 0
KLE1 170938Z 07007KT 21/16 A3001 RMK A01 T02050163  RH  077%=      5-min Rain = 0
KLE1 170939Z 07007KT 21/16 A3001 RMK A01 T02050163  RH  077%=      5-min Rain = 0
KLE1 170940Z 07007KT 21/16 A3001 RMK A01 T02050163  RH  077%=      5-min Rain = 0
KLE1 170941Z 07006KT 21/16 A3001 RMK A01 T02050163  RH  077%=      5-min Rain = 0
KLE1 170942Z 07006KT 21/16 A3001 RMK A01 T02050164  RH  077%=      5-min Rain = 0
KLE1 170943Z 07006KT 21/16 A3001 RMK A01 T02050163  RH  077%=      5-min Rain = 0
KLE1 170944Z 07006KT 21/16 A3001 RMK A01 T02050163  RH  077%=      5-min Rain = 0
KLE1 170945Z 07006KT 21/16 A3001 RMK A01 T02050163  RH  077%=      5-min Rain = 0
KLE1 170946Z 07006KT 21/16 A3001 RMK A01 T02050163  RH  077%=      5-min Rain = 0
KLE1 170947Z 07006KT 21/16 A3001 RMK A01 T02050163  RH  077%=      5-min Rain = 0
KLE1 170948Z 07006KT 21/16 A3001 RMK A01 T02050164  RH  077%=      5-min Rain = 0
KLE1 170949Z 07006KT 21/16 A3001 RMK A01 T02050164  RH  077%=      5-min Rain = 0
KLE1 170950Z 07006KT 21/16 A3001 RMK A01 T02050164  RH  077%=      5-min Rain = 0
KLE1 170951Z 07006KT 21/16 A3001 RMK A01 T02050164  RH  077%=      5-min Rain = 0
KLE1 170952Z 07006KT 21/16 A3001 RMK A01 T02060164  RH  077%=      5-min Rain = 0
KLE1 170953Z 07006KT 21/16 A3001 RMK A01 T02050164  RH  077%=      5-min Rain = 0
KLE1 170954Z 07006KT 21/16 A3001 RMK A01 T02050164  RH  077%=      5-min Rain = 0
KLE1 170955Z 07006KT 21/16 A3001 RMK A01 T02050163  RH  077%=      5-min Rain = 0
KLE1 170956Z 07006KT 20/16 A3001 RMK A01 T02040163  RH  077%=      5-min Rain = 0
KLE1 170957Z 07006KT 20/16 A3001 RMK A01 T02040163  RH  078%=      5-min Rain = 0
KLE1 170958Z 07007KT 20/16 A3001 RMK A01 T02030163  RH  078%=      5-min Rain = 0
KLE1 170959Z 07006KT 20/16 A3001 RMK A01 T02040164  RH  078%=      5-min Rain = 0
KLE1 171000Z 07006KT 20/16 A3001 RMK A01 T02030163  RH  078%=      5-min Rain = 0
KLE1 171001Z 07006KT 20/16 A3001 RMK A01 T02030163  RH  078%=      5-min Rain = 0
KLE1 171002Z 07006KT 20/16 A3001 RMK A01 T02030163  RH  078%=      5-min Rain = 0
KLE1 171003Z 08006KT 20/16 A3001 RMK A01 T02030164  RH  078%=      5-min Rain = 0
KLE1 171004Z 08006KT 20/16 A3001 RMK A01 T02030164  RH  078%=      5-min Rain = 0
KLE1 171005Z 08006KT 20/16 A3001 RMK A01 T02020163  RH  078%=      5-min Rain = 0
KLE1 171006Z 08006KT 20/16 A3001 RMK A01 T02020163  RH  078%=      5-min Rain = 0
KLE1 171007Z 08006KT 20/16 A3001 RMK A01 T02030163  RH  078%=      5-min Rain = 0
KLE1 171008Z 08006KT 20/16 A3001 RMK A01 T02030163  RH  078%=      5-min Rain = 0
KLE1 171009Z 08006KT 20/16 A3001 RMK A01 T02020163  RH  078%=      5-min Rain = 0
KLE1 171010Z 09006KT 20/16 A3001 RMK A01 T02020163  RH  078%=      5-min Rain = 0
KLE1 171011Z 09006KT 20/16 A3001 RMK A01 T02030164  RH  078%=      5-min Rain = 0
KLE1 171012Z 09006KT 20/16 A3001 RMK A01 T02030164  RH  078%=      5-min Rain = 0
KLE1 171013Z 09006KT 20/16 A3001 RMK A01 T02030164  RH  078%=      5-min Rain = 0
KLE1 171014Z 08006KT 20/16 A3001 RMK A01 T02030164  RH  078%=      5-min Rain = 0
KLE1 171015Z 08006KT 20/16 A3001 RMK A01 T02030164  RH  078%=      5-min Rain = 0
KLE1 171016Z 08006KT 20/16 A3001 RMK A01 T02030164  RH  078%=      5-min Rain = 0
KLE1 171017Z 08006KT 20/16 A3001 RMK A01 T02030164  RH  078%=      5-min Rain = 0
KLE1 171018Z 08006KT 20/16 A3001 RMK A01 T02030164  RH  078%=      5-min Rain = 0
KLE1 171019Z 08006KT 20/16 A3001 RMK A01 T02030164  RH  079%=      5-min Rain = 0
KLE1 171020Z 08006KT 20/16 A3001 RMK A01 T02020164  RH  079%=      5-min Rain = 0
KLE1 171021Z 08006KT 20/16 A3001 RMK A01 T02020164  RH  079%=      5-min Rain = 0
KLE1 171022Z 08006KT 20/16 A3001 RMK A01 T02020164  RH  079%=      5-min Rain = 0
KLE1 171023Z 08006KT 20/16 A3001 RMK A01 T02010164  RH  079%=      5-min Rain = 0
KLE1 171024Z 08006KT 20/16 A3001 RMK A01 T02010164  RH  079%=      5-min Rain = 0
KLE1 171025Z 08006KT 20/16 A3001 RMK A01 T02010164  RH  080%=      5-min Rain = 0
KLE1 171026Z 08006KT 20/17 A3001 RMK A01 T02000165  RH  080%=      5-min Rain = 0
KLE1 171027Z 09006KT 20/17 A3001 RMK A01 T02000165  RH  080%=      5-min Rain = 0
KLE1 171028Z 09006KT 20/17 A3001 RMK A01 T02000165  RH  080%=      5-min Rain = 0
KLE1 171029Z 09006KT 20/17 A3001 RMK A01 T02000165  RH  080%=      5-min Rain = 0
KLE1 171030Z 08006KT 20/17 A3001 RMK A01 T02000165  RH  080%=      5-min Rain = 0
KLE1 171031Z 09006KT 20/17 A3001 RMK A01 T02000165  RH  080%=      5-min Rain = 0
KLE1 171032Z 09006KT 20/17 A3001 RMK A01 T02000165  RH  080%=      5-min Rain = 0
KLE1 171033Z 08007KT 20/17 A3001 RMK A01 T01990165  RH  080%=      5-min Rain = 0
KLE1 171034Z 08007KT 20/17 A3001 RMK A01 T01990165  RH  080%=      5-min Rain = 0
KLE1 171035Z 08006KT 20/17 A3001 RMK A01 T01990165  RH  080%=      5-min Rain = 0
KLE1 171036Z 08006KT 20/17 A3001 RMK A01 T01990165  RH  080%=      5-min Rain = 0
KLE1 171037Z 09006KT 20/17 A3001 RMK A01 T02000165  RH  080%=      5-min Rain = 0
KLE1 171038Z 09007KT 20/16 A3001 RMK A01 T01990164  RH  080%=      5-min Rain = 0
KLE1 171039Z 09007KT 20/17 A3001 RMK A01 T01990165  RH  080%=      5-min Rain = 0
KLE1 171040Z 09007KT 20/17 A3001 RMK A01 T02000165  RH  080%=      5-min Rain = 0
KLE1 171041Z 09007KT 20/17 A3001 RMK A01 T01990165  RH  080%=      5-min Rain = 0
KLE1 171042Z 09007KT 20/17 A3001 RMK A01 T01990165  RH  081%=      5-min Rain = 0
KLE1 171043Z 09007KT 20/17 A3001 RMK A01 T01990165  RH  081%=      5-min Rain = 0
KLE1 171044Z 10007KT 20/17 A3001 RMK A01 T01990165  RH  081%=      5-min Rain = 0
KLE1 171045Z 10006KT 20/17 A3001 RMK A01 T01990165  RH  081%=      5-min Rain = 0
KLE1 171046Z 10006KT 20/16 A3001 RMK A01 T01990164  RH  081%=      5-min Rain = 0
KLE1 171047Z 10006KT 20/16 A3001 RMK A01 T01980164  RH  081%=      5-min Rain = 0
KLE1 171048Z 10007KT 20/16 A3001 RMK A01 T01980164  RH  081%=      5-min Rain = 0
KLE1 171049Z 10007KT 20/16 A3001 RMK A01 T01980163  RH  081%=      5-min Rain = 0
KLE1 171050Z 10007KT 20/16 A3001 RMK A01 T01970163  RH  081%=      5-min Rain = 0
KLE1 171051Z 10007KT 20/16 A3001 RMK A01 T01980163  RH  080%=      5-min Rain = 0
KLE1 171052Z 10007KT 20/16 A3001 RMK A01 T01980163  RH  080%=      5-min Rain = 0
KLE1 171053Z 10007KT 20/16 A3001 RMK A01 T01980163  RH  080%=      5-min Rain = 0
KLE1 171054Z 10007KT 20/16 A3001 RMK A01 T01980163  RH  080%=      5-min Rain = 0
KLE1 171055Z 10007KT 20/16 A3001 RMK A01 T01980163  RH  080%=      5-min Rain = 0
KLE1 171056Z 10007KT 20/16 A3001 RMK A01 T01990163  RH  080%=      5-min Rain = 0
KLE1 171057Z 10007KT 20/16 A3001 RMK A01 T02000163  RH  079%=      5-min Rain = 0
KLE1 171058Z 10007KT 20/16 A3001 RMK A01 T02010163  RH  079%=      5-min Rain = 0
KLE1 171059Z 10007KT 20/16 A3001 RMK A01 T02010164  RH  079%=      5-min Rain = 0
KLE1 171100Z 10007KT 20/16 A3001 RMK A01 T02010163  RH  079%=      5-min Rain = 0
KLE1 171101Z 10007KT 20/16 A3001 RMK A01 T02010164  RH  079%=      5-min Rain = 0
KLE1 171102Z 10007KT 20/16 A3001 RMK A01 T02020164  RH  079%=      5-min Rain = 0
KLE1 171103Z 10007KT 20/16 A3001 RMK A01 T02020164  RH  079%=      5-min Rain = 0
KLE1 171104Z 10007KT 20/16 A3001 RMK A01 T02020164  RH  079%=      5-min Rain = 0
KLE1 171105Z 10007KT 20/17 A3001 RMK A01 T02030165  RH  079%=      5-min Rain = 0
KLE1 171106Z 09007KT 20/17 A3001 RMK A01 T02030165  RH  078%=      5-min Rain = 0
KLE1 171107Z 09007KT 20/17 A3001 RMK A01 T02030165  RH  078%=      5-min Rain = 0
KLE1 171108Z 10007KT 20/16 A3001 RMK A01 T02030164  RH  078%=      5-min Rain = 0
KLE1 171109Z 10007KT 20/17 A3001 RMK A01 T02040165  RH  078%=      5-min Rain = 0
KLE1 171110Z 10007KT 20/17 A3001 RMK A01 T02040165  RH  078%=      5-min Rain = 0
KLE1 171111Z 10007KT 20/17 A3001 RMK A01 T02040165  RH  078%=      5-min Rain = 0
KLE1 171112Z 10007KT 20/16 A3001 RMK A01 T02040164  RH  078%=      5-min Rain = 0
KLE1 171113Z 10007KT 20/16 A3001 RMK A01 T02040164  RH  078%=      5-min Rain = 0
KLE1 171114Z 10007KT 21/17 A3001 RMK A01 T02050165  RH  078%=      5-min Rain = 0
KLE1 171115Z 10007KT 20/16 A3001 RMK A01 T02040164  RH  078%=      5-min Rain = 0
KLE1 171116Z 10007KT 20/17 A3001 RMK A01 T02040165  RH  078%=      5-min Rain = 0
KLE1 171117Z 10007KT 21/17 A3001 RMK A01 T02050165  RH  078%=      5-min Rain = 0
KLE1 171118Z 10007KT 21/16 A3001 RMK A01 T02050164  RH  078%=      5-min Rain = 0
KLE1 171119Z 09007KT 21/16 A3001 RMK A01 T02050164  RH  078%=      5-min Rain = 0
KLE1 171120Z 09007KT 21/17 A3001 RMK A01 T02050165  RH  078%=      5-min Rain = 0
KLE1 171121Z 09006KT 20/16 A3001 RMK A01 T02040164  RH  078%=      5-min Rain = 0
KLE1 171122Z 09006KT 20/16 A3001 RMK A01 T02030164  RH  078%=      5-min Rain = 0
KLE1 171123Z 09006KT 20/17 A3001 RMK A01 T02030165  RH  078%=      5-min Rain = 0
KLE1 171124Z 09006KT 20/17 A3001 RMK A01 T02030165  RH  079%=      5-min Rain = 0
KLE1 171125Z 09006KT 20/16 A3001 RMK A01 T02030164  RH  078%=      5-min Rain = 0
KLE1 171126Z 09006KT 20/16 A3001 RMK A01 T02020164  RH  079%=      5-min Rain = 0
KLE1 171127Z 09006KT 20/16 A3001 RMK A01 T02020164  RH  079%=      5-min Rain = 0
KLE1 171128Z 09006KT 20/16 A3001 RMK A01 T02010164  RH  079%=      5-min Rain = 0
KLE1 171129Z 09007KT 20/16 A3001 RMK A01 T02010164  RH  079%=      5-min Rain = 0
KLE1 171130Z 09007KT 20/16 A3002 RMK A01 T02000164  RH  080%=      5-min Rain = 0
KLE1 171131Z 09006KT 20/16 A3002 RMK A01 T01990163  RH  080%=      5-min Rain = 0
KLE1 171132Z 08006KT 20/16 A3002 RMK A01 T01990163  RH  080%=      5-min Rain = 0
KLE1 171133Z 08006KT 20/16 A3002 RMK A01 T01980163  RH  080%=      5-min Rain = 0
KLE1 171134Z 08006KT 20/16 A3002 RMK A01 T01980163  RH  080%=      5-min Rain = 0
KLE1 171135Z 08006KT 20/16 A3002 RMK A01 T01970163  RH  081%=      5-min Rain = 0
KLE1 171136Z 08006KT 20/16 A3002 RMK A01 T01970163  RH  081%=      5-min Rain = 0
KLE1 171137Z 08006KT 20/16 A3002 RMK A01 T01970164  RH  081%=      5-min Rain = 0
KLE1 171138Z 08006KT 20/16 A3002 RMK A01 T01970164  RH  081%=      5-min Rain = 0
KLE1 171139Z 08006KT 20/17 A3002 RMK A01 T01970165  RH  082%=      5-min Rain = 0
KLE1 171140Z 08006KT 20/16 A3002 RMK A01 T01970164  RH  082%=      5-min Rain = 0
KLE1 171141Z 08006KT 20/17 A3002 RMK A01 T01970165  RH  082%=      5-min Rain = 0
KLE1 171142Z 08006KT 20/16 A3002 RMK A01 T01970164  RH  082%=      5-min Rain = 0
KLE1 171143Z 09007KT 20/16 A3002 RMK A01 T01970164  RH  081%=      5-min Rain = 0
KLE1 171144Z 09006KT 20/16 A3002 RMK A01 T01960164  RH  082%=      5-min Rain = 0
KLE1 171145Z 09006KT 20/16 A3002 RMK A01 T01970164  RH  082%=      5-min Rain = 0
KLE1 171146Z 09006KT 20/16 A3002 RMK A01 T01970164  RH  082%=      5-min Rain = 0
KLE1 171147Z 09007KT 20/16 A3002 RMK A01 T01970164  RH  082%=      5-min Rain = 0
KLE1 171148Z 09007KT 20/16 A3002 RMK A01 T01960164  RH  082%=      5-min Rain = 0
KLE1 171149Z 09007KT 20/17 A3002 RMK A01 T01960165  RH  082%=      5-min Rain = 0
KLE1 171150Z 09007KT 20/17 A3002 RMK A01 T01960165  RH  082%=      5-min Rain = 0
KLE1 171151Z 09007KT 20/17 A3002 RMK A01 T01960165  RH  082%=      5-min Rain = 0
KLE1 171152Z 09007KT 20/17 A3002 RMK A01 T01960165  RH  082%=      5-min Rain = 0
KLE1 171153Z 09007KT 20/17 A3002 RMK A01 T01960165  RH  082%=      5-min Rain = 0
KLE1 171154Z 09007KT 20/17 A3002 RMK A01 T01960165  RH  082%=      5-min Rain = 0
KLE1 171155Z 09007KT 20/17 A3002 RMK A01 T01960165  RH  082%=      5-min Rain = 0
KLE1 171156Z 10007KT 20/17 A3002 RMK A01 T01960165  RH  082%=      5-min Rain = 0
KLE1 171157Z 10007KT 20/17 A3002 RMK A01 T01960165  RH  082%=      5-min Rain = 0
KLE1 171158Z 10007KT 20/17 A3002 RMK A01 T01960165  RH  082%=      5-min Rain = 0
KLE1 171159Z 09007KT 20/17 A3002 RMK A01 T01960165  RH  082%=      5-min Rain = 0
KLE1 171200Z 10007KT 20/17 A3002 RMK A01 T01960165  RH  082%=      5-min Rain = 0
KLE1 171201Z 10007KT 20/17 A3002 RMK A01 T01960165  RH  082%=      5-min Rain = 0
KLE1 171202Z 10006KT 20/17 A3002 RMK A01 T01960165  RH  082%=      5-min Rain = 0
KLE1 171203Z 10006KT 20/17 A3002 RMK A01 T01960165  RH  082%=      5-min Rain = 0
KLE1 171204Z 10006KT 20/16 A3002 RMK A01 T01950164  RH  082%=      5-min Rain = 0
KLE1 171205Z 10006KT 20/16 A3002 RMK A01 T01950164  RH  082%=      5-min Rain = 0
KLE1 171206Z 10007KT 20/16 A3002 RMK A01 T01950164  RH  082%=      5-min Rain = 0
KLE1 171207Z 10008KT 19/16 A3002 RMK A01 T01940163  RH  082%=      5-min Rain = 0
KLE1 171208Z 10007KT 19/16 A3002 RMK A01 T01940163  RH  082%=      5-min Rain = 0
KLE1 171209Z 10008KT 19/16 A3002 RMK A01 T01930163  RH  082%=      5-min Rain = 0
KLE1 171210Z 10008KT 19/16 A3002 RMK A01 T01920162  RH  083%=      5-min Rain = 0
KLE1 171211Z 11008KT 19/16 A3002 RMK A01 T01930162  RH  083%=      5-min Rain = 0
KLE1 171212Z 11008KT 19/16 A3002 RMK A01 T01930163  RH  083%=      5-min Rain = 0
KLE1 171213Z 11008KT 19/16 A3002 RMK A01 T01930162  RH  082%=      5-min Rain = 0
KLE1 171214Z 11008KT 19/16 A3002 RMK A01 T01930162  RH  082%=      5-min Rain = 0
KLE1 171215Z 11008KT 19/16 A3002 RMK A01 T01940163  RH  082%=      5-min Rain = 0
KLE1 171216Z 11008KT 19/16 A3002 RMK A01 T01940162  RH  082%=      5-min Rain = 0
KLE1 171217Z 11008KT 20/16 A3002 RMK A01 T01950163  RH  082%=      5-min Rain = 0
KLE1 171218Z 11007KT 20/16 A3002 RMK A01 T01950163  RH  082%=      5-min Rain = 0
KLE1 171219Z 11007KT 20/16 A3002 RMK A01 T01950162  RH  081%=      5-min Rain = 0
KLE1 171220Z 11007KT 20/16 A3002 RMK A01 T01950162  RH  081%=      5-min Rain = 0
KLE1 171221Z 11007KT 20/16 A3002 RMK A01 T01950162  RH  081%=      5-min Rain = 0
KLE1 171222Z 11007KT 20/16 A3002 RMK A01 T01960163  RH  081%=      5-min Rain = 0
KLE1 171223Z 11006KT 20/16 A3002 RMK A01 T01960162  RH  081%=      5-min Rain = 0
KLE1 171224Z 11006KT 20/16 A3002 RMK A01 T01960162  RH  081%=      5-min Rain = 0
KLE1 171225Z 11007KT 20/16 A3002 RMK A01 T01960163  RH  081%=      5-min Rain = 0
KLE1 171226Z 10006KT 20/16 A3002 RMK A01 T01960163  RH  081%=      5-min Rain = 0
KLE1 171227Z 10006KT 20/16 A3002 RMK A01 T01960163  RH  081%=      5-min Rain = 0
KLE1 171228Z 10006KT 20/16 A3002 RMK A01 T01960163  RH  081%=      5-min Rain = 0
KLE1 171229Z 10006KT 20/16 A3002 RMK A01 T01960163  RH  081%=      5-min Rain = 0
KLE1 171230Z 10006KT 20/16 A3002 RMK A01 T01960163  RH  081%=      5-min Rain = 0
KLE1 171231Z 10006KT 20/16 A3002 RMK A01 T01960163  RH  081%=      5-min Rain = 0
KLE1 171232Z 10006KT 20/16 A3002 RMK A01 T01960163  RH  081%=      5-min Rain = 0
KLE1 171233Z 10006KT 20/16 A3002 RMK A01 T01960163  RH  081%=      5-min Rain = 0
KLE1 171234Z 10006KT 20/16 A3002 RMK A01 T01950163  RH  081%=      5-min Rain = 0
KLE1 171235Z 10006KT 20/16 A3002 RMK A01 T01950163  RH  081%=      5-min Rain = 0
KLE1 171236Z 11007KT 20/16 A3002 RMK A01 T01950163  RH  082%=      5-min Rain = 0
KLE1 171237Z 11006KT 20/16 A3002 RMK A01 T01950163  RH  082%=      5-min Rain = 0
KLE1 171238Z 11006KT 20/16 A3002 RMK A01 T01960163  RH  082%=      5-min Rain = 0
KLE1 171239Z 11007KT 20/16 A3002 RMK A01 T01970163  RH  081%=      5-min Rain = 0
KLE1 171240Z 11006KT 20/16 A3002 RMK A01 T01970163  RH  081%=      5-min Rain = 0
KLE1 171241Z 11006KT 20/16 A3002 RMK A01 T01980164  RH  081%=      5-min Rain = 0
KLE1 171242Z 11006KT 20/16 A3002 RMK A01 T01980164  RH  081%=      5-min Rain = 0
KLE1 171243Z 11006KT 20/16 A3002 RMK A01 T01990164  RH  080%=      5-min Rain = 0
KLE1 171244Z 11006KT 20/16 A3002 RMK A01 T01990164  RH  080%=      5-min Rain = 0
KLE1 171245Z 11006KT 20/16 A3003 RMK A01 T02000164  RH  080%=      5-min Rain = 0
KLE1 171246Z 11006KT 20/16 A3003 RMK A01 T02000164  RH  080%=      5-min Rain = 0
KLE1 171247Z 11006KT 20/17 A3002 RMK A01 T02010165  RH  079%=      5-min Rain = 0
KLE1 171248Z 10006KT 20/16 A3003 RMK A01 T02010164  RH  079%=      5-min Rain = 0
KLE1 171249Z 11005KT 20/16 A3003 RMK A01 T02020164  RH  079%=      5-min Rain = 0
KLE1 171250Z 11006KT 20/17 A3003 RMK A01 T02020165  RH  079%=      5-min Rain = 0
KLE1 171251Z 11006KT 20/17 A3003 RMK A01 T02030165  RH  079%=      5-min Rain = 0
KLE1 171252Z 11006KT 20/17 A3003 RMK A01 T02030165  RH  079%=      5-min Rain = 0
KLE1 171253Z 11006KT 20/17 A3003 RMK A01 T02040165  RH  078%=      5-min Rain = 0
KLE1 171254Z 11006KT 21/17 A3003 RMK A01 T02050165  RH  078%=      5-min Rain = 0
KLE1 171255Z 11006KT 21/17 A3003 RMK A01 T02050166  RH  078%=      5-min Rain = 0
KLE1 171256Z 11005KT 21/17 A3003 RMK A01 T02060166  RH  078%=      5-min Rain = 0
KLE1 171257Z 11005KT 21/17 A3003 RMK A01 T02060166  RH  077%=      5-min Rain = 0
KLE1 171258Z 10006KT 21/17 A3003 RMK A01 T02070166  RH  077%=      5-min Rain = 0
KLE1 171259Z 11005KT 21/17 A3003 RMK A01 T02080166  RH  077%=      5-min Rain = 0
KLE1 171300Z 10005KT 21/17 A3003 RMK A01 T02080166  RH  077%=      5-min Rain = 0
KLE1 171301Z 10005KT 21/17 A3003 RMK A01 T02090166  RH  077%=      5-min Rain = 0
KLE1 171302Z 10005KT 21/17 A3003 RMK A01 T02090166  RH  076%=      5-min Rain = 0
KLE1 171303Z 10005KT 21/17 A3003 RMK A01 T02100166  RH  076%=      5-min Rain = 0
KLE1 171304Z 10005KT 21/17 A3003 RMK A01 T02100166  RH  076%=      5-min Rain = 0
KLE1 171305Z 10005KT 21/17 A3003 RMK A01 T02110166  RH  076%=      5-min Rain = 0
KLE1 171306Z 10005KT 21/17 A3003 RMK A01 T02110166  RH  075%=      5-min Rain = 0
KLE1 171307Z 10005KT 21/17 A3003 RMK A01 T02120166  RH  075%=      5-min Rain = 0
KLE1 171308Z 10005KT 21/17 A3003 RMK A01 T02120166  RH  075%=      5-min Rain = 0
KLE1 171309Z 10005KT 21/17 A3003 RMK A01 T02130166  RH  075%=      5-min Rain = 0
KLE1 171310Z 10005KT 21/17 A3003 RMK A01 T02140167  RH  074%=      5-min Rain = 0
KLE1 171311Z 10005KT 21/17 A3003 RMK A01 T02140167  RH  074%=      5-min Rain = 0
KLE1 171312Z 10004KT 22/17 A3003 RMK A01 T02160168  RH  074%=      5-min Rain = 0
KLE1 171313Z 10004KT 22/17 A3003 RMK A01 T02160167  RH  074%=      5-min Rain = 0
KLE1 171314Z 10005KT 22/17 A3003 RMK A01 T02180168  RH  073%=      5-min Rain = 0
KLE1 171315Z 11005KT 22/17 A3003 RMK A01 T02180168  RH  073%=      5-min Rain = 0
KLE1 171316Z 10005KT 22/17 A3003 RMK A01 T02190168  RH  073%=      5-min Rain = 0
KLE1 171317Z 11006KT 22/17 A3003 RMK A01 T02200168  RH  072%=      5-min Rain = 0
KLE1 171318Z 11006KT 22/17 A3003 RMK A01 T02200168  RH  072%=      5-min Rain = 0
KLE1 171319Z 11007KT 22/17 A3003 RMK A01 T02210168  RH  072%=      5-min Rain = 0
KLE1 171320Z 11006KT 22/17 A3003 RMK A01 T02220168  RH  071%=      5-min Rain = 0
KLE1 171321Z 12006KT 22/17 A3003 RMK A01 T02220168  RH  071%=      5-min Rain = 0
KLE1 171322Z 11007KT 22/17 A3003 RMK A01 T02230168  RH  071%=      5-min Rain = 0
KLE1 171323Z 11007KT 22/17 A3003 RMK A01 T02230167  RH  071%=      5-min Rain = 0
KLE1 171324Z 11006KT 22/17 A3003 RMK A01 T02230168  RH  071%=      5-min Rain = 0
KLE1 171325Z 11007KT 22/17 A3003 RMK A01 T02240168  RH  071%=      5-min Rain = 0
KLE1 171326Z 11008KT 23/17 A3003 RMK A01 T02250168  RH  070%=      5-min Rain = 0
KLE1 171327Z 11007KT 23/17 A3003 RMK A01 T02250168  RH  070%=      5-min Rain = 0
KLE1 171328Z 11007KT 23/17 A3003 RMK A01 T02250168  RH  070%=      5-min Rain = 0
KLE1 171329Z 11006KT 23/17 A3003 RMK A01 T02260168  RH  070%=      5-min Rain = 0
KLE1 171330Z 11007KT 23/17 A3003 RMK A01 T02270168  RH  069%=      5-min Rain = 0
KLE1 171331Z 11006KT 23/17 A3003 RMK A01 T02270168  RH  069%=      5-min Rain = 0
KLE1 171332Z 11007KT 23/17 A3003 RMK A01 T02270168  RH  069%=      5-min Rain = 0
KLE1 171333Z 11007KT 23/17 A3003 RMK A01 T02270167  RH  069%=      5-min Rain = 0
KLE1 171334Z 11008KT 23/17 A3003 RMK A01 T02270167  RH  069%=      5-min Rain = 0
KLE1 171335Z 11007KT 23/17 A3003 RMK A01 T02270168  RH  069%=      5-min Rain = 0
KLE1 171336Z 11006KT 23/17 A3003 RMK A01 T02270168  RH  069%=      5-min Rain = 0
KLE1 171337Z 11007KT 23/17 A3003 RMK A01 T02270168  RH  069%=      5-min Rain = 0
KLE1 171338Z 12006KT 23/17 A3003 RMK A01 T02270168  RH  069%=      5-min Rain = 0
KLE1 171339Z 12005KT 23/17 A3003 RMK A01 T02270168  RH  069%=      5-min Rain = 0
KLE1 171340Z 12006KT 23/17 A3003 RMK A01 T02270168  RH  069%=      5-min Rain = 0
KLE1 171341Z 12006KT 23/17 A3003 RMK A01 T02270168  RH  069%=      5-min Rain = 0
KLE1 171342Z 12005KT 23/17 A3003 RMK A01 T02270167  RH  069%=      5-min Rain = 0
KLE1 171343Z 12004KT 23/17 A3003 RMK A01 T02270168  RH  069%=      5-min Rain = 0
KLE1 171344Z 12004KT 23/17 A3003 RMK A01 T02280168  RH  069%=      5-min Rain = 0
KLE1 171345Z 13004KT 23/17 A3003 RMK A01 T02290168  RH  069%=      5-min Rain = 0
KLE1 171346Z 13004KT 23/17 A3003 RMK A01 T02300168  RH  068%=      5-min Rain = 0
KLE1 171347Z 14004KT 23/17 A3003 RMK A01 T02300167  RH  068%=      5-min Rain = 0
KLE1 171348Z 15003KT 23/17 A3003 RMK A01 T02310167  RH  067%=      5-min Rain = 0
KLE1 171349Z 14002KT 23/17 A3003 RMK A01 T02310168  RH  068%=      5-min Rain = 0
KLE1 171350Z 15003KT 23/17 A3003 RMK A01 T02320168  RH  067%=      5-min Rain = 0
KLE1 171351Z 15003KT 23/17 A3003 RMK A01 T02330167  RH  066%=      5-min Rain = 0
KLE1 171352Z 13004KT 23/17 A3003 RMK A01 T02330167  RH  066%=      5-min Rain = 0
KLE1 171353Z 14003KT 23/17 A3003 RMK A01 T02330167  RH  066%=      5-min Rain = 0
KLE1 171354Z 13003KT 23/17 A3003 RMK A01 T02340168  RH  066%=      5-min Rain = 0
KLE1 171355Z 13004KT 23/17 A3003 RMK A01 T02340167  RH  066%=      5-min Rain = 0
KLE1 171356Z 14004KT 24/17 A3003 RMK A01 T02350168  RH  066%=      5-min Rain = 0
KLE1 171357Z 14005KT 24/17 A3003 RMK A01 T02360168  RH  066%=      5-min Rain = 0
KLE1 171358Z 14004KT 24/17 A3003 RMK A01 T02360168  RH  065%=      5-min Rain = 0
KLE1 171359Z 14004KT 24/17 A3003 RMK A01 T02360167  RH  066%=      5-min Rain = 0
KLE1 171400Z 15004KT 24/17 A3003 RMK A01 T02360168  RH  066%=      5-min Rain = 0
KLE1 171401Z 15004KT 24/17 A3003 RMK A01 T02370168  RH  065%=      5-min Rain = 0
KLE1 171402Z 15005KT 24/17 A3003 RMK A01 T02370168  RH  065%=      5-min Rain = 0
KLE1 171403Z 14005KT 24/17 A3003 RMK A01 T02360168  RH  065%=      5-min Rain = 0
KLE1 171404Z 15005KT 24/17 A3003 RMK A01 T02350168  RH  066%=      5-min Rain = 0
KLE1 171405Z 15004KT 24/17 A3003 RMK A01 T02360168  RH  066%=      5-min Rain = 0
KLE1 171406Z 14005KT 24/17 A3003 RMK A01 T02360169  RH  066%=      5-min Rain = 0
KLE1 171407Z 14004KT 24/17 A3003 RMK A01 T02370169  RH  065%=      5-min Rain = 0
KLE1 171408Z 15005KT 24/17 A3003 RMK A01 T02380168  RH  065%=      5-min Rain = 0
KLE1 171409Z 14004KT 24/17 A3003 RMK A01 T02380168  RH  065%=      5-min Rain = 0
KLE1 171410Z 15004KT 24/17 A3003 RMK A01 T02390169  RH  065%=      5-min Rain = 0
KLE1 171411Z 16004KT 24/17 A3003 RMK A01 T02400168  RH  064%=      5-min Rain = 0
KLE1 171412Z 14005KT 24/17 A3003 RMK A01 T02410169  RH  064%=      5-min Rain = 0
KLE1 171413Z 14005KT 24/17 A3003 RMK A01 T02420168  RH  063%=      5-min Rain = 0
KLE1 171414Z 15006KT 24/17 A3003 RMK A01 T02420168  RH  063%=      5-min Rain = 0
KLE1 171415Z 14004KT 24/17 A3003 RMK A01 T02430169  RH  064%=      5-min Rain = 0
KLE1 171416Z 16004KT 24/17 A3004 RMK A01 T02430170  RH  063%=      5-min Rain = 0
KLE1 171417Z 16006KT 24/17 A3003 RMK A01 T02440168  RH  062%=      5-min Rain = 0
KLE1 171418Z 14006KT 25/17 A3004 RMK A01 T02450169  RH  062%=      5-min Rain = 0
KLE1 171419Z 16005KT 25/17 A3004 RMK A01 T02460169  RH  062%=      5-min Rain = 0
KLE1 171420Z 13005KT 25/17 A3003 RMK A01 T02470168  RH  062%=      5-min Rain = 0
KLE1 171421Z 15005KT 25/17 A3003 RMK A01 T02490169  RH  061%=      5-min Rain = 0
KLE1 171422Z 15005KT 25/17 A3003 RMK A01 T02500169  RH  061%=      5-min Rain = 0
KLE1 171423Z 14006KT 25/17 A3003 RMK A01 T02500169  RH  061%=      5-min Rain = 0
KLE1 171424Z 15005KT 25/17 A3003 RMK A01 T02500168  RH  060%=      5-min Rain = 0
KLE1 171425Z 15005KT 25/17 A3003 RMK A01 T02490167  RH  060%=      5-min Rain = 0
KLE1 171426Z 14005KT 25/17 A3003 RMK A01 T02480167  RH  060%=      5-min Rain = 0
KLE1 171427Z 14005KT 25/17 A3003 RMK A01 T02480167  RH  060%=      5-min Rain = 0
KLE1 171428Z 14007KT 25/17 A3003 RMK A01 T02490167  RH  060%=      5-min Rain = 0
KLE1 171429Z 14006KT 25/17 A3003 RMK A01 T02500167  RH  060%=      5-min Rain = 0
KLE1 171430Z 16007KT 25/17 A3003 RMK A01 T02500168  RH  060%=      5-min Rain = 0
KLE1 171431Z 15007KT 25/17 A3003 RMK A01 T02520169  RH  060%=      5-min Rain = 0
KLE1 171432Z 14007KT 25/17 A3003 RMK A01 T02520168  RH  060%=      5-min Rain = 0
KLE1 171433Z 15005KT 25/17 A3003 RMK A01 T02520168  RH  060%=      5-min Rain = 0
KLE1 171434Z 14005KT 25/17 A3004 RMK A01 T02520168  RH  060%=      5-min Rain = 0
KLE1 171435Z 13006KT 25/17 A3004 RMK A01 T02520169  RH  060%=      5-min Rain = 0
KLE1 171436Z 14007KT 25/17 A3004 RMK A01 T02540170  RH  060%=      5-min Rain = 0
KLE1 171437Z 17005KT 26/17 A3003 RMK A01 T02550168  RH  059%=      5-min Rain = 0
KLE1 171438Z 17005KT 26/17 A3003 RMK A01 T02550169  RH  059%=      5-min Rain = 0
KLE1 171439Z 14006KT 26/17 A3003 RMK A01 T02560171  RH  059%=      5-min Rain = 0
KLE1 171440Z 16006KT 26/17 A3003 RMK A01 T02580170  RH  058%=      5-min Rain = 0
KLE1 171441Z 15005KT 26/17 A3003 RMK A01 T02590171  RH  058%=      5-min Rain = 0
KLE1 171442Z 15005KT 26/17 A3003 RMK A01 T02600170  RH  058%=      5-min Rain = 0
KLE1 171443Z 15005KT 26/17 A3003 RMK A01 T02600170  RH  058%=      5-min Rain = 0
KLE1 171444Z 15007KT 26/17 A3003 RMK A01 T02620170  RH  057%=      5-min Rain = 0
KLE1 171445Z 16008KT 26/17 A3003 RMK A01 T02630169  RH  056%=      5-min Rain = 0
KLE1 171446Z 17007KT 27/17 A3003 RMK A01 T02650171  RH  056%=      5-min Rain = 0
KLE1 171447Z 17008KT 27/17 A3003 RMK A01 T02670169  RH  055%=      5-min Rain = 0
KLE1 171448Z 17008KT 27/17 A3003 RMK A01 T02660168  RH  055%=      5-min Rain = 0
KLE1 171449Z 17009KT 27/17 A3003 RMK A01 T02660168  RH  055%=      5-min Rain = 0
KLE1 171450Z 17010KT 27/17 A3003 RMK A01 T02650167  RH  055%=      5-min Rain = 0
KLE1 171451Z 16010KT 27/17 A3003 RMK A01 T02650167  RH  055%=      5-min Rain = 0
KLE1 171452Z 16009KT 27/17 A3003 RMK A01 T02650168  RH  055%=      5-min Rain = 0
KLE1 171453Z 16010KT 27/17 A3003 RMK A01 T02660168  RH  055%=      5-min Rain = 0
KLE1 171454Z 16009KT 27/17 A3004 RMK A01 T02660167  RH  055%=      5-min Rain = 0
KLE1 171455Z 15008KT 27/17 A3004 RMK A01 T02680170  RH  055%=      5-min Rain = 0
KLE1 171456Z 17009KT 27/17 A3004 RMK A01 T02690169  RH  054%=      5-min Rain = 0
KLE1 171457Z 17010KT 27/17 A3004 RMK A01 T02670167  RH  054%=      5-min Rain = 0
KLE1 171458Z 17008KT 27/17 A3004 RMK A01 T02650167  RH  055%=      5-min Rain = 0
KLE1 171459Z 18009KT 27/17 A3004 RMK A01 T02650168  RH  055%=      5-min Rain = 0
KLE1 171500Z 18009KT 27/17 A3004 RMK A01 T02660168  RH  055%=      5-min Rain = 0
KLE1 171501Z 16011KT 27/17 A3004 RMK A01 T02680168  RH  054%=      5-min Rain = 0
KLE1 171502Z 16010KT 27/17 A3004 RMK A01 T02690168  RH  054%=      5-min Rain = 0
KLE1 171503Z 17009KT 27/17 A3004 RMK A01 T02690168  RH  054%=      5-min Rain = 0
KLE1 171504Z 18010KT 27/17 A3004 RMK A01 T02690168  RH  054%=      5-min Rain = 0
KLE1 171505Z 18008KT 27/17 A3004 RMK A01 T02680167  RH  054%=      5-min Rain = 0
KLE1 171506Z 18009KT 27/17 A3004 RMK A01 T02670168  RH  055%=      5-min Rain = 0
KLE1 171507Z 18008KT 27/17 A3004 RMK A01 T02680168  RH  054%=      5-min Rain = 0
KLE1 171508Z 17008KT 27/17 A3004 RMK A01 T02680168  RH  054%=      5-min Rain = 0
KLE1 171509Z 17007KT 27/17 A3004 RMK A01 T02690169  RH  054%=      5-min Rain = 0
KLE1 171510Z 18007KT 27/17 A3004 RMK A01 T02690169  RH  054%=      5-min Rain = 0
KLE1 171511Z 18007KT 27/17 A3004 RMK A01 T02700169  RH  054%=      5-min Rain = 0
KLE1 171512Z 17008KT 27/17 A3004 RMK A01 T02700169  RH  054%=      5-min Rain = 0
KLE1 171513Z 16010KT 27/17 A3004 RMK A01 T02700169  RH  054%=      5-min Rain = 0
KLE1 171514Z 17007KT 27/17 A3004 RMK A01 T02710169  RH  054%=      5-min Rain = 0
KLE1 171515Z 17008KT 27/17 A3004 RMK A01 T02730171  RH  054%=      5-min Rain = 0
KLE1 171516Z 16008KT 27/17 A3004 RMK A01 T02740170  RH  053%=      5-min Rain = 0
KLE1 171517Z 15007KT 28/17 A3004 RMK A01 T02750170  RH  053%=      5-min Rain = 0
KLE1 171518Z 15008KT 28/17 A3004 RMK A01 T02760170  RH  052%=      5-min Rain = 0
KLE1 171519Z 15009KT 28/17 A3004 RMK A01 T02760169  RH  052%=      5-min Rain = 0
KLE1 171520Z 15007KT 28/17 A3004 RMK A01 T02770170  RH  052%=      5-min Rain = 0
KLE1 171521Z 16008KT 28/17 A3004 RMK A01 T02760169  RH  052%=      5-min Rain = 0
KLE1 171522Z 16008KT 28/17 A3004 RMK A01 T02770170  RH  052%=      5-min Rain = 0
KLE1 171523Z 17008KT 28/17 A3004 RMK A01 T02770169  RH  052%=      5-min Rain = 0
KLE1 171524Z 17008KT 28/17 A3004 RMK A01 T02770170  RH  052%=      5-min Rain = 0
KLE1 171525Z 17010KT 28/17 A3004 RMK A01 T02790169  RH  051%=      5-min Rain = 0
KLE1 171526Z 18011KT 28/17 A3004 RMK A01 T02790169  RH  051%=      5-min Rain = 0
KLE1 171527Z 18010KT 28/17 A3004 RMK A01 T02790168  RH  051%=      5-min Rain = 0
KLE1 171528Z 18008KT 28/17 A3004 RMK A01 T02790168  RH  051%=      5-min Rain = 0
KLE1 171529Z 17008KT 28/17 A3004 RMK A01 T02780169  RH  052%=      5-min Rain = 0
KLE1 171530Z 19007KT 28/17 A3004 RMK A01 T02810171  RH  051%=      5-min Rain = 0
KLE1 171531Z 18008KT 28/17 A3004 RMK A01 T02840170  RH  050%=      5-min Rain = 0
KLE1 171532Z 18009KT 29/17 A3004 RMK A01 T02850170  RH  050%=      5-min Rain = 0
KLE1 171533Z 18009KT 29/17 A3004 RMK A01 T02850169  RH  050%=      5-min Rain = 0
KLE1 171534Z 18007KT 28/17 A3004 RMK A01 T02840169  RH  050%=      5-min Rain = 0
KLE1 171535Z 18008KT 28/17 A3004 RMK A01 T02840170  RH  050%=      5-min Rain = 0
KLE1 171536Z 17008KT 29/17 A3004 RMK A01 T02850170  RH  050%=      5-min Rain = 0
KLE1 171537Z 17008KT 29/17 A3004 RMK A01 T02860169  RH  049%=      5-min Rain = 0
KLE1 171538Z 17007KT 29/17 A3004 RMK A01 T02860169  RH  049%=      5-min Rain = 0
KLE1 171539Z 16006KT 29/17 A3004 RMK A01 T02870170  RH  049%=      5-min Rain = 0
KLE1 171540Z 16006KT 29/17 A3004 RMK A01 T02880171  RH  049%=      5-min Rain = 0
KLE1 171541Z 16005KT 29/17 A3004 RMK A01 T02880170  RH  049%=      5-min Rain = 0
KLE1 171542Z 18007KT 29/17 A3004 RMK A01 T02880170  RH  049%=      5-min Rain = 0
KLE1 171543Z 16005KT 29/17 A3004 RMK A01 T02890171  RH  049%=      5-min Rain = 0
KLE1 171544Z 19006KT 29/17 A3004 RMK A01 T02900172  RH  049%=      5-min Rain = 0
KLE1 171545Z 18008KT 29/17 A3004 RMK A01 T02920171  RH  048%=      5-min Rain = 0
KLE1 171546Z 17007KT 29/17 A3004 RMK A01 T02930170  RH  048%=      5-min Rain = 0
KLE1 171547Z 16008KT 29/17 A3004 RMK A01 T02930170  RH  048%=      5-min Rain = 0
KLE1 171548Z 16007KT 29/17 A3004 RMK A01 T02920169  RH  047%=      5-min Rain = 0
KLE1 171549Z 16008KT 29/17 A3004 RMK A01 T02910170  RH  048%=      5-min Rain = 0
KLE1 171550Z 16009KT 29/17 A3004 RMK A01 T02910170  RH  048%=      5-min Rain = 0
KLE1 171551Z 16007KT 29/17 A3004 RMK A01 T02910170  RH  048%=      5-min Rain = 0
KLE1 171552Z 15007KT 29/17 A3004 RMK A01 T02910169  RH  048%=      5-min Rain = 0
KLE1 171553Z 14005KT 29/17 A3004 RMK A01 T02910169  RH  048%=      5-min Rain = 0
KLE1 171554Z 16006KT 29/17 A3004 RMK A01 T02910170  RH  048%=      5-min Rain = 0
KLE1 171555Z 16005KT 29/17 A3004 RMK A01 T02900169  RH  048%=      5-min Rain = 0
KLE1 171556Z 18006KT 29/17 A3004 RMK A01 T02890170  RH  048%=      5-min Rain = 0
KLE1 171557Z 16006KT 29/17 A3004 RMK A01 T02910170  RH  048%=      5-min Rain = 0
KLE1 171558Z 15007KT 29/17 A3004 RMK A01 T02910170  RH  048%=      5-min Rain = 0
KLE1 171559Z 14005KT 29/17 A3004 RMK A01 T02930172  RH  048%=      5-min Rain = 0
KLE1 171600Z 14005KT 30/17 A3004 RMK A01 T02950171  RH  047%=      5-min Rain = 0
KLE1 171601Z 15005KT 30/17 A3003 RMK A01 T02950171  RH  047%=      5-min Rain = 0
KLE1 171602Z 14007KT 30/17 A3003 RMK A01 T02960172  RH  047%=      5-min Rain = 0
KLE1 171603Z 14009KT 30/17 A3003 RMK A01 T03000171  RH  046%=      5-min Rain = 0
KLE1 171604Z 16008KT 30/17 A3003 RMK A01 T03000170  RH  046%=      5-min Rain = 0
KLE1 171605Z 18007KT 30/17 A3003 RMK A01 T03010171  RH  046%=      5-min Rain = 0
KLE1 171606Z 17005KT 30/17 A3003 RMK A01 T03010170  RH  045%=      5-min Rain = 0
KLE1 171607Z 16007KT 30/17 A3003 RMK A01 T03020171  RH  046%=      5-min Rain = 0
KLE1 171608Z 15006KT 30/17 A3003 RMK A01 T03030170  RH  045%=      5-min Rain = 0
KLE1 171609Z 15005KT 30/17 A3003 RMK A01 T03030171  RH  045%=      5-min Rain = 0
KLE1 171610Z 18005KT 30/17 A3003 RMK A01 T03040171  RH  045%=      5-min Rain = 0
KLE1 171611Z 18006KT 30/17 A3003 RMK A01 T03040170  RH  044%=      5-min Rain = 0
KLE1 171612Z 18007KT 30/17 A3003 RMK A01 T03040171  RH  045%=      5-min Rain = 0
KLE1 171613Z 19006KT 30/17 A3003 RMK A01 T03040169  RH  044%=      5-min Rain = 0
KLE1 171614Z 19007KT 30/17 A3003 RMK A01 T03030171  RH  045%=      5-min Rain = 0
KLE1 171615Z 18007KT 30/17 A3003 RMK A01 T03040172  RH  045%=      5-min Rain = 0
KLE1 171616Z 17007KT 31/17 A3003 RMK A01 T03070171  RH  044%=      5-min Rain = 0
KLE1 171617Z 16007KT 31/17 A3003 RMK A01 T03070169  RH  044%=      5-min Rain = 0
KLE1 171618Z 19008KT 31/17 A3003 RMK A01 T03060170  RH  044%=      5-min Rain = 0
KLE1 171619Z 20007KT 31/17 A3003 RMK A01 T03060168  RH  044%=      5-min Rain = 0
KLE1 171620Z 19006KT 31/17 A3003 RMK A01 T03050168  RH  044%=      5-min Rain = 0
KLE1 171621Z 18007KT 31/17 A3003 RMK A01 T03050169  RH  044%=      5-min Rain = 0
KLE1 171622Z 14006KT 31/17 A3003 RMK A01 T03080172  RH  044%=      5-min Rain = 0
KLE1 171623Z 16008KT 31/17 A3003 RMK A01 T03120171  RH  043%=      5-min Rain = 0
KLE1 171624Z 19008KT 31/17 A3003 RMK A01 T03130170  RH  042%=      5-min Rain = 0
KLE1 171625Z 21008KT 31/17 A3003 RMK A01 T03130170  RH  042%=      5-min Rain = 0
KLE1 171626Z 18006KT 31/17 A3003 RMK A01 T03120170  RH  043%=      5-min Rain = 0
KLE1 171627Z 15007KT 31/17 A3003 RMK A01 T03100170  RH  043%=      5-min Rain = 0
KLE1 171628Z 15007KT 31/17 A3003 RMK A01 T03100170  RH  043%=      5-min Rain = 0
KLE1 171629Z 18007KT 31/17 A3003 RMK A01 T03110171  RH  043%=      5-min Rain = 0
KLE1 171630Z 19008KT 32/17 A3003 RMK A01 T03150172  RH  042%=      5-min Rain = 0
KLE1 171631Z 18008KT 32/17 A3003 RMK A01 T03160171  RH  042%=      5-min Rain = 0
KLE1 171632Z 17007KT 32/17 A3003 RMK A01 T03170169  RH  041%=      5-min Rain = 0
KLE1 171633Z 17008KT 31/17 A3003 RMK A01 T03140169  RH  042%=      5-min Rain = 0
KLE1 171634Z 18006KT 31/17 A3003 RMK A01 T03100168  RH  043%=      5-min Rain = 0
KLE1 171635Z 17006KT 31/17 A3003 RMK A01 T03080169  RH  043%=      5-min Rain = 0
KLE1 171636Z 16007KT 31/17 A3003 RMK A01 T03070169  RH  044%=      5-min Rain = 0
KLE1 171637Z 15005KT 31/17 A3003 RMK A01 T03080168  RH  043%=      5-min Rain = 0
KLE1 171638Z 15005KT 31/17 A3003 RMK A01 T03080169  RH  043%=      5-min Rain = 0
KLE1 171639Z 15006KT 31/17 A3003 RMK A01 T03100169  RH  043%=      5-min Rain = 0
KLE1 171640Z 15006KT 31/17 A3003 RMK A01 T03110168  RH  042%=      5-min Rain = 0
KLE1 171641Z 15005KT 31/17 A3003 RMK A01 T03120170  RH  042%=      5-min Rain = 0
KLE1 171642Z 16007KT 32/17 A3003 RMK A01 T03150169  RH  042%=      5-min Rain = 0
KLE1 171643Z 15007KT 31/17 A3003 RMK A01 T03140168  RH  042%=      5-min Rain = 0
KLE1 171644Z 18007KT 31/17 A3003 RMK A01 T03140169  RH  042%=      5-min Rain = 0
KLE1 171645Z 17005KT 32/17 A3003 RMK A01 T03150170  RH  042%=      5-min Rain = 0
KLE1 171646Z 16005KT 32/17 A3003 RMK A01 T03170170  RH  041%=      5-min Rain = 0
KLE1 171647Z 17007KT 32/17 A3003 RMK A01 T03200170  RH  041%=      5-min Rain = 0
KLE1 171648Z 19006KT 32/17 A3003 RMK A01 T03220168  RH  040%=      5-min Rain = 0
KLE1 171649Z 17006KT 32/17 A3003 RMK A01 T03220168  RH  040%=      5-min Rain = 0
KLE1 171650Z 17004KT 32/17 A3003 RMK A01 T03230166  RH  039%=      5-min Rain = 0
KLE1 171651Z 16004KT 32/17 A3003 RMK A01 T03210166  RH  039%=      5-min Rain = 0
KLE1 171652Z 17006KT 32/17 A3003 RMK A01 T03210169  RH  040%=      5-min Rain = 0
KLE1 171653Z 17005KT 33/17 A3003 RMK A01 T03250169  RH  039%=      5-min Rain = 0
KLE1 171654Z 17003KT 32/17 A3003 RMK A01 T03240167  RH  039%=      5-min Rain = 0
KLE1 171655Z 19006KT 32/17 A3003 RMK A01 T03230168  RH  040%=      5-min Rain = 0
KLE1 171656Z 17006KT 32/17 A3003 RMK A01 T03240169  RH  040%=      5-min Rain = 0
KLE1 171657Z 18007KT 33/17 A3003 RMK A01 T03260167  RH  039%=      5-min Rain = 0
KLE1 171658Z 18006KT 33/17 A3003 RMK A01 T03260166  RH  038%=      5-min Rain = 0
KLE1 171659Z 18006KT 33/17 A3003 RMK A01 T03280166  RH  038%=      5-min Rain = 0
KLE1 171700Z 17006KT 33/17 A3003 RMK A01 T03280166  RH  038%=      5-min Rain = 0
KLE1 171701Z 18005KT 33/17 A3003 RMK A01 T03300168  RH  038%=      5-min Rain = 0
KLE1 171702Z 19007KT 33/17 A3003 RMK A01 T03320167  RH  037%=      5-min Rain = 0
KLE1 171703Z 19006KT 33/17 A3002 RMK A01 T03310166  RH  037%=      5-min Rain = 0
KLE1 171704Z 19008KT 33/17 A3002 RMK A01 T03300165  RH  037%=      5-min Rain = 0
KLE1 171705Z 17008KT 33/17 A3002 RMK A01 T03280165  RH  038%=      5-min Rain = 0
KLE1 171706Z 17006KT 33/16 A3002 RMK A01 T03280164  RH  037%=      5-min Rain = 0
KLE1 171707Z 16005KT 33/16 A3002 RMK A01 T03280164  RH  037%=      5-min Rain = 0
KLE1 171708Z 19003KT 33/16 A3002 RMK A01 T03280163  RH  037%=      5-min Rain = 0
KLE1 171709Z 19007KT 33/17 A3002 RMK A01 T03270165  RH  038%=      5-min Rain = 0
KLE1 171710Z 20007KT 33/17 A3002 RMK A01 T03300165  RH  037%=      5-min Rain = 0
KLE1 171711Z 21007KT 33/16 A3002 RMK A01 T03290164  RH  037%=      5-min Rain = 0
KLE1 171712Z 21007KT 33/16 A3002 RMK A01 T03280162  RH  037%=      5-min Rain = 0
KLE1 171713Z 22006KT 33/16 A3002 RMK A01 T03260161  RH  037%=      5-min Rain = 0
KLE1 171714Z 20007KT 33/16 A3002 RMK A01 T03260163  RH  038%=      5-min Rain = 0
KLE1 171715Z 19007KT 33/16 A3002 RMK A01 T03290164  RH  037%=      5-min Rain = 0
KLE1 171716Z 19009KT 33/16 A3002 RMK A01 T03290164  RH  037%=      5-min Rain = 0
KLE1 171717Z 18008KT 33/16 A3002 RMK A01 T03300164  RH  037%=      5-min Rain = 0
KLE1 171718Z 17007KT 33/16 A3002 RMK A01 T03320161  RH  036%=      5-min Rain = 0
KLE1 171719Z 17009KT 33/16 A3002 RMK A01 T03290160  RH  036%=      5-min Rain = 0
KLE1 171720Z 20009KT 33/16 A3002 RMK A01 T03290161  RH  037%=      5-min Rain = 0
KLE1 171721Z 21009KT 33/16 A3002 RMK A01 T03280162  RH  037%=      5-min Rain = 0
KLE1 171722Z 21009KT 33/16 A3002 RMK A01 T03310164  RH  037%=      5-min Rain = 0
KLE1 171723Z 21008KT 33/16 A3002 RMK A01 T03340164  RH  036%=      5-min Rain = 0
KLE1 171724Z 19007KT 34/17 A3002 RMK A01 T03400165  RH  035%=      5-min Rain = 0
KLE1 171725Z 15008KT 34/16 A3002 RMK A01 T03410164  RH  035%=      5-min Rain = 0
KLE1 171726Z 15010KT 34/16 A3001 RMK A01 T03430164  RH  035%=      5-min Rain = 0
KLE1 171727Z 15010KT 34/16 A3001 RMK A01 T03430161  RH  034%=      5-min Rain = 0
KLE1 171728Z 15010KT 34/16 A3001 RMK A01 T03420161  RH  034%=      5-min Rain = 0
KLE1 171729Z 17008KT 34/16 A3001 RMK A01 T03400161  RH  034%=      5-min Rain = 0
KLE1 171730Z 14006KT 34/16 A3001 RMK A01 T03390161  RH  035%=      5-min Rain = 0
KLE1 171731Z 14010KT 34/16 A3001 RMK A01 T03390162  RH  035%=      5-min Rain = 0
KLE1 171732Z 16011KT 34/16 A3001 RMK A01 T03380162  RH  035%=      5-min Rain = 0
KLE1 171733Z 15012KT 34/16 A3001 RMK A01 T03370162  RH  035%=      5-min Rain = 0
KLE1 171734Z 15011KT 34/16 A3001 RMK A01 T03370162  RH  035%=      5-min Rain = 0
KLE1 171735Z 16012KT 34/16 A3001 RMK A01 T03390161  RH  035%=      5-min Rain = 0
KLE1 171736Z 16011KT 34/16 A3001 RMK A01 T03370157  RH  034%=      5-min Rain = 0
KLE1 171737Z 17010KT 33/16 A3001 RMK A01 T03330158  RH  035%=      5-min Rain = 0
KLE1 171738Z 19009KT 33/16 A3001 RMK A01 T03330159  RH  035%=      5-min Rain = 0
KLE1 171739Z 19007KT 34/16 A3001 RMK A01 T03350159  RH  035%=      5-min Rain = 0
KLE1 171740Z 18007KT 34/16 A3001 RMK A01 T03350158  RH  035%=      5-min Rain = 0
KLE1 171741Z 21006KT 33/16 A3001 RMK A01 T03340159  RH  035%=      5-min Rain = 0
KLE1 171742Z 13005KT 33/16 A3001 RMK A01 T03340159  RH  035%=      5-min Rain = 0
KLE1 171743Z 12003KT 33/16 A3001 RMK A01 T03330158  RH  035%=      5-min Rain = 0
KLE1 171744Z 12004KT 33/16 A3001 RMK A01 T03320159  RH  035%=      5-min Rain = 0
KLE1 171745Z 14007KT 33/16 A3001 RMK A01 T03330159  RH  035%=      5-min Rain = 0
KLE1 171746Z 13008KT 34/16 A3001 RMK A01 T03350160  RH  035%=      5-min Rain = 0
KLE1 171747Z 16007KT 34/16 A3001 RMK A01 T03380159  RH  034%=      5-min Rain = 0
KLE1 171748Z 15009KT 34/16 A3001 RMK A01 T03380158  RH  034%=      5-min Rain = 0
KLE1 171749Z 15009KT 34/16 A3001 RMK A01 T03390158  RH  034%=      5-min Rain = 0
KLE1 171750Z 17008KT 34/16 A3001 RMK A01 T03370157  RH  034%=      5-min Rain = 0
KLE1 171751Z 18010KT 34/16 A3001 RMK A01 T03370158  RH  034%=      5-min Rain = 0
KLE1 171752Z 18014KT 34/16 A30 RMK A01 T03400155  RH  033%=      5-min Rain = 0
KLE1 171753Z 19012KT 34/15 A3001 RMK A01 T03440153  RH  032%=      5-min Rain = 0
KLE1 171754Z 17011KT 34/15 A3001 RMK A01 T03440153  RH  032%=      5-min Rain = 0
KLE1 171755Z 17009KT 34/15 A3001 RMK A01 T03420150  RH  032%=      5-min Rain = 0
KLE1 171756Z 19004KT 34/15 A30 RMK A01 T03380148  RH  032%=      5-min Rain = 0
KLE1 171757Z 18007KT 34/15 A30 RMK A01 T03380151  RH  033%=      5-min Rain = 0
KLE1 171758Z 18007KT 34/15 A30 RMK A01 T03400152  RH  033%=      5-min Rain = 0
KLE1 171759Z 18007KT 34/16 A30 RMK A01 T03410155  RH  033%=      5-min Rain = 0
KLE1 171800Z 17009KT 34/15 A30 RMK A01 T03420154  RH  033%=      5-min Rain = 0
KLE1 171801Z 15011KT 34/15 A30 RMK A01 T03410154  RH  033%=      5-min Rain = 0
KLE1 171802Z 17007KT 34/15 A30 RMK A01 T03400151  RH  032%=      5-min Rain = 0
KLE1 171803Z 15006G12KT 34/15 A30 RMK A01 T03350151  RH  033%=      5-min Rain = 0
KLE1 171804Z 17013KT 33/15 A30 RMK A01 T03320150  RH  033%=      5-min Rain = 0
KLE1 171805Z 16014KT 33/15 A30 RMK A01 T03300148  RH  033%=      5-min Rain = 0
KLE1 171806Z 15013KT 33/15 A30 RMK A01 T03290148  RH  034%=      5-min Rain = 0
KLE1 171807Z 15011KT 33/15 A30 RMK A01 T03290149  RH  034%=      5-min Rain = 0
KLE1 171808Z 15009KT 33/15 A30 RMK A01 T03300151  RH  034%=      5-min Rain = 0
KLE1 171809Z 16006KT 33/15 A2999 RMK A01 T03320151  RH  034%=      5-min Rain = 0
KLE1 171810Z 16007G13KT 33/15 A2999 RMK A01 T03320152  RH  034%=      5-min Rain = 0
KLE1 171811Z 17013KT 33/15 A2999 RMK A01 T03340149  RH  033%=      5-min Rain = 0
KLE1 171812Z 16010KT 33/15 A2999 RMK A01 T03330147  RH  033%=      5-min Rain = 0
KLE1 171813Z 15009KT 33/15 A2999 RMK A01 T03330148  RH  033%=      5-min Rain = 0
KLE1 171814Z 18013KT 34/15 A2999 RMK A01 T03360148  RH  032%=      5-min Rain = 0
KLE1 171815Z 18013KT 34/15 A2999 RMK A01 T03410150  RH  032%=      5-min Rain = 0
KLE1 171816Z 16011KT 34/15 A2999 RMK A01 T03420149  RH  031%=      5-min Rain = 0
KLE1 171817Z 16014KT 34/15 A2999 RMK A01 T03440150  RH  031%=      5-min Rain = 0
KLE1 171818Z 14011KT 34/15 A2999 RMK A01 T03440147  RH  031%=      5-min Rain = 0
KLE1 171819Z 15011KT 34/15 A2999 RMK A01 T03400147  RH  031%=      5-min Rain = 0
KLE1 171820Z 17009KT 34/15 A2999 RMK A01 T03380149  RH  032%=      5-min Rain = 0
KLE1 171821Z 17010KT 34/15 A2999 RMK A01 T03380151  RH  033%=      5-min Rain = 0
KLE1 171822Z 17009KT 34/15 A2999 RMK A01 T03390151  RH  032%=      5-min Rain = 0
KLE1 171823Z 18007KT 34/15 A2999 RMK A01 T03370150  RH  033%=      5-min Rain = 0
KLE1 171824Z 18005KT 33/15 A2999 RMK A01 T03340149  RH  033%=      5-min Rain = 0
KLE1 171825Z 20007KT 33/15 A2999 RMK A01 T03330150  RH  033%=      5-min Rain = 0
KLE1 171826Z 18007KT 33/15 A2999 RMK A01 T03310149  RH  033%=      5-min Rain = 0
KLE1 171827Z 17011KT 33/15 A2999 RMK A01 T03310149  RH  034%=      5-min Rain = 0
KLE1 171828Z 16010KT 33/15 A2999 RMK A01 T03310147  RH  033%=      5-min Rain = 0
KLE1 171829Z 18012KT 34/15 A2999 RMK A01 T03350150  RH  033%=      5-min Rain = 0
KLE1 171830Z 17012KT 34/15 A2999 RMK A01 T03390152  RH  033%=      5-min Rain = 0
KLE1 171831Z 19012KT 34/15 A2999 RMK A01 T03400152  RH  032%=      5-min Rain = 0
KLE1 171832Z 19011KT 34/15 A2999 RMK A01 T03400149  RH  032%=      5-min Rain = 0
KLE1 171833Z 18013KT 34/15 A2999 RMK A01 T03360151  RH  033%=      5-min Rain = 0
KLE1 171834Z 19011KT 33/15 A2999 RMK A01 T03330150  RH  033%=      5-min Rain = 0
KLE1 171835Z 21010KT 33/15 A2999 RMK A01 T03300149  RH  034%=      5-min Rain = 0
KLE1 171836Z 22010KT 33/15 A2998 RMK A01 T03280149  RH  034%=      5-min Rain = 0
KLE1 171837Z 21007KT 33/15 A2998 RMK A01 T03280149  RH  034%=      5-min Rain = 0
KLE1 171838Z 24005KT 33/15 A2998 RMK A01 T03270148  RH  034%=      5-min Rain = 0
KLE1 171839Z 22005KT 33/15 A2998 RMK A01 T03310153  RH  034%=      5-min Rain = 0
KLE1 171840Z 15008G13KT 34/15 A2998 RMK A01 T03360154  RH  034%=      5-min Rain = 0
KLE1 171841Z 17014KT 34/15 A2998 RMK A01 T03440153  RH  032%=      5-min Rain = 0
KLE1 171842Z 19013KT 35/15 A2998 RMK A01 T03460150  RH  031%=      5-min Rain = 0
KLE1 171843Z 17011KT 35/15 A2998 RMK A01 T03470149  RH  031%=      5-min Rain = 0
KLE1 171844Z 18011KT 35/15 A2998 RMK A01 T03480150  RH  031%=      5-min Rain = 0
KLE1 171845Z 17012KT 35/15 A2998 RMK A01 T03490148  RH  030%=      5-min Rain = 0
KLE1 171846Z 15014KT 35/15 A2998 RMK A01 T03460145  RH  030%=      5-min Rain = 0
KLE1 171847Z 14012KT 34/15 A2998 RMK A01 T03440145  RH  030%=      5-min Rain = 0
KLE1 171848Z 14010KT 35/15 A2998 RMK A01 T03450149  RH  031%=      5-min Rain = 0
KLE1 171849Z 14007KT 35/15 A2998 RMK A01 T03490149  RH  030%=      5-min Rain = 0
KLE1 171850Z 15008KT 35/15 A2998 RMK A01 T03490151  RH  031%=      5-min Rain = 0
KLE1 171851Z 17009G15KT 35/15 A2998 RMK A01 T03530151  RH  030%=      5-min Rain = 0
KLE1 171852Z 19011KT 35/15 A2998 RMK A01 T03530150  RH  030%=      5-min Rain = 0
KLE1 171853Z 20010G17KT 35/15 A2997 RMK A01 T03520154  RH  031%=      5-min Rain = 0
KLE1 171854Z 17013KT 36/15 A2997 RMK A01 T03550149  RH  029%=      5-min Rain = 0
KLE1 171855Z 18011KT 35/15 A2997 RMK A01 T03540149  RH  029%=      5-min Rain = 0
KLE1 171856Z 17011KT 36/15 A2997 RMK A01 T03580153  RH  029%=      5-min Rain = 0
KLE1 171857Z 19015KT 36/15 A2997 RMK A01 T03590151  RH  029%=      5-min Rain = 0
KLE1 171858Z 19015KT 36/15 A2997 RMK A01 T03570149  RH  029%=      5-min Rain = 0
KLE1 171859Z 19012KT 36/15 A2997 RMK A01 T03550147  RH  029%=      5-min Rain = 0
KLE1 171900Z 18011KT 35/15 A2997 RMK A01 T03520148  RH  030%=      5-min Rain = 0
KLE1 171901Z 18010KT 35/15 A2997 RMK A01 T03520147  RH  029%=      5-min Rain = 0
KLE1 171902Z 17009KT 35/15 A2997 RMK A01 T03510148  RH  030%=      5-min Rain = 0
KLE1 171903Z 18010KT 35/15 A2997 RMK A01 T03490148  RH  030%=      5-min Rain = 0
KLE1 171904Z 17010KT 35/15 A2997 RMK A01 T03460147  RH  030%=      5-min Rain = 0
KLE1 171905Z 19007KT 34/15 A2997 RMK A01 T03430146  RH  031%=      5-min Rain = 0
KLE1 171906Z 16008KT 34/15 A2997 RMK A01 T03400146  RH  031%=      5-min Rain = 0
KLE1 171907Z 16006KT 34/15 A2997 RMK A01 T03390147  RH  031%=      5-min Rain = 0
KLE1 171908Z 16008KT 34/15 A2997 RMK A01 T03390146  RH  031%=      5-min Rain = 0
KLE1 171909Z 14010KT 34/15 A2997 RMK A01 T03390146  RH  031%=      5-min Rain = 0
KLE1 171910Z 15011KT 34/15 A2997 RMK A01 T03400145  RH  031%=      5-min Rain = 0
KLE1 171911Z 16012KT 34/15 A2997 RMK A01 T03390145  RH  031%=      5-min Rain = 0
KLE1 171912Z 18008KT 34/15 A2997 RMK A01 T03380146  RH  032%=      5-min Rain = 0
KLE1 171913Z 16010G15KT 34/15 A2997 RMK A01 T03410149  RH  032%=      5-min Rain = 0
KLE1 171914Z 15013KT 35/15 A2996 RMK A01 T03510154  RH  031%=      5-min Rain = 0
KLE1 171915Z 16014KT 36/15 A2996 RMK A01 T03580151  RH  029%=      5-min Rain = 0
KLE1 171916Z 17016KT 36/14 A2996 RMK A01 T03590141  RH  027%=      5-min Rain = 0
KLE1 171917Z 18014KT 36/14 A2996 RMK A01 T03560143  RH  028%=      5-min Rain = 0
KLE1 171918Z 18012KT 35/14 A2996 RMK A01 T03510144  RH  029%=      5-min Rain = 0
KLE1 171919Z 19011KT 35/14 A2996 RMK A01 T03460144  RH  030%=      5-min Rain = 0
KLE1 171920Z 17009KT 34/14 A2996 RMK A01 T03410143  RH  030%=      5-min Rain = 0
KLE1 171921Z 15012KT 34/15 A2996 RMK A01 T03390146  RH  031%=      5-min Rain = 0
KLE1 171922Z 16012KT 34/15 A2996 RMK A01 T03390146  RH  031%=      5-min Rain = 0
KLE1 171923Z 16009KT 34/15 A2996 RMK A01 T03380145  RH  031%=      5-min Rain = 0
KLE1 171924Z 16011KT 34/15 A2996 RMK A01 T03370146  RH  032%=      5-min Rain = 0
KLE1 171925Z 14011KT 34/14 A2996 RMK A01 T03360144  RH  032%=      5-min Rain = 0
KLE1 171926Z 14011KT 33/14 A2996 RMK A01 T03330143  RH  032%=      5-min Rain = 0
KLE1 171927Z 15009KT 33/15 A2996 RMK A01 T03340146  RH  032%=      5-min Rain = 0
KLE1 171928Z 14010KT 34/15 A2996 RMK A01 T03390147  RH  032%=      5-min Rain = 0
KLE1 171929Z 15010KT 34/15 A2996 RMK A01 T03440147  RH  031%=      5-min Rain = 0
KLE1 171930Z 16017KT 35/15 A2996 RMK A01 T03490147  RH  030%=      5-min Rain = 0
KLE1 171931Z 14014KT 35/15 A2996 RMK A01 T03500145  RH  029%=      5-min Rain = 0
KLE1 171932Z 15014KT 35/15 A2996 RMK A01 T03500146  RH  029%=      5-min Rain = 0
KLE1 171933Z 15012KT 35/14 A2996 RMK A01 T03490143  RH  029%=      5-min Rain = 0
KLE1 171934Z 16011KT 35/14 A2996 RMK A01 T03450142  RH  029%=      5-min Rain = 0
KLE1 171935Z 15010KT 34/14 A2996 RMK A01 T03440143  RH  030%=      5-min Rain = 0
KLE1 171936Z 17009KT 35/14 A2996 RMK A01 T03460143  RH  030%=      5-min Rain = 0
KLE1 171937Z 15009KT 35/14 A2996 RMK A01 T03450143  RH  030%=      5-min Rain = 0
KLE1 171938Z 15008KT 34/14 A2996 RMK A01 T03430143  RH  030%=      5-min Rain = 0
KLE1 171939Z 13012KT 34/15 A2995 RMK A01 T03440146  RH  030%=      5-min Rain = 0
KLE1 171940Z 14011KT 35/15 A2995 RMK A01 T03460145  RH  030%=      5-min Rain = 0
KLE1 171941Z 15011KT 35/15 A2995 RMK A01 T03480146  RH  030%=      5-min Rain = 0
KLE1 171942Z 13011KT 35/15 A2995 RMK A01 T03500147  RH  030%=      5-min Rain = 0
KLE1 171943Z 15009KT 35/15 A2995 RMK A01 T03490146  RH  030%=      5-min Rain = 0
KLE1 171944Z 13008KT 35/15 A2995 RMK A01 T03460145  RH  030%=      5-min Rain = 0
KLE1 171945Z 13010KT 34/15 A2995 RMK A01 T03430145  RH  030%=      5-min Rain = 0
KLE1 171946Z 16012G17KT 34/15 A2995 RMK A01 T03410145  RH  031%=      5-min Rain = 0
KLE1 171947Z 15015G20KT 34/14 A2995 RMK A01 T03420142  RH  030%=      5-min Rain = 0
KLE1 171948Z 14018KT 35/15 A2995 RMK A01 T03480147  RH  030%=      5-min Rain = 0
KLE1 171949Z 15018KT 35/15 A2995 RMK A01 T03540145  RH  029%=      5-min Rain = 0
KLE1 171950Z 15015KT 36/15 A2995 RMK A01 T03570146  RH  029%=      5-min Rain = 0
KLE1 171951Z 15016KT 35/14 A2995 RMK A01 T03540142  RH  028%=      5-min Rain = 0
KLE1 171952Z 14012G17KT 35/14 A2995 RMK A01 T03460141  RH  029%=      5-min Rain = 0
KLE1 171953Z 14012G18KT 34/14 A2995 RMK A01 T03420142  RH  030%=      5-min Rain = 0
KLE1 171954Z 15012KT 34/14 A2995 RMK A01 T03410144  RH  030%=      5-min Rain = 0
KLE1 171955Z 15012KT 34/14 A2995 RMK A01 T03400144  RH  031%=      5-min Rain = 0
KLE1 171956Z 16012KT 34/15 A2995 RMK A01 T03430146  RH  031%=      5-min Rain = 0
KLE1 171957Z 15013KT 35/15 A2995 RMK A01 T03480145  RH  030%=      5-min Rain = 0
KLE1 171958Z 14010KT 35/14 A2995 RMK A01 T03500143  RH  029%=      5-min Rain = 0
KLE1 171959Z 15012KT 35/14 A2995 RMK A01 T03510143  RH  029%=      5-min Rain = 0
KLE1 172000Z 14010KT 35/14 A2995 RMK A01 T03520141  RH  028%=      5-min Rain = 0
KLE1 172001Z 15015G20KT 36/15 A2994 RMK A01 T03560145  RH  028%=      5-min Rain = 0
KLE1 172002Z 15015KT 36/15 A2994 RMK A01 T03580146  RH  028%=      5-min Rain = 0
KLE1 172003Z 14015KT 36/14 A2994 RMK A01 T03560143  RH  028%=      5-min Rain = 0
KLE1 172004Z 15015KT 35/14 A2994 RMK A01 T03500142  RH  029%=      5-min Rain = 0
KLE1 172005Z 16016KT 34/14 A2994 RMK A01 T03440143  RH  030%=      5-min Rain = 0
KLE1 172006Z 17014KT 34/14 A2994 RMK A01 T03400142  RH  030%=      5-min Rain = 0
KLE1 172007Z 17016KT 34/14 A2994 RMK A01 T03380141  RH  031%=      5-min Rain = 0
KLE1 172008Z 16015KT 34/14 A2994 RMK A01 T03370142  RH  031%=      5-min Rain = 0
KLE1 172009Z 15016KT 34/14 A2994 RMK A01 T03400143  RH  031%=      5-min Rain = 0
KLE1 172010Z 16010KT 34/14 A2994 RMK A01 T03420142  RH  030%=      5-min Rain = 0
KLE1 172011Z 16011KT 34/14 A2994 RMK A01 T03420141  RH  030%=      5-min Rain = 0
KLE1 172012Z 15011KT 34/14 A2994 RMK A01 T03430144  RH  030%=      5-min Rain = 0
KLE1 172013Z 14011KT 35/15 A2994 RMK A01 T03490146  RH  030%=      5-min Rain = 0
KLE1 172014Z 14012KT 35/14 A2994 RMK A01 T03520144  RH  029%=      5-min Rain = 0
KLE1 172015Z 13010KT 35/14 A2994 RMK A01 T03520143  RH  029%=      5-min Rain = 0
KLE1 172016Z 14008KT 35/14 A2994 RMK A01 T03480142  RH  029%=      5-min Rain = 0
KLE1 172017Z 16007KT 35/14 A2994 RMK A01 T03470143  RH  029%=      5-min Rain = 0
KLE1 172018Z 17009KT 35/14 A2994 RMK A01 T03470144  RH  029%=      5-min Rain = 0
KLE1 172019Z 18010KT 35/15 A2994 RMK A01 T03500145  RH  029%=      5-min Rain = 0
KLE1 172020Z 16010KT 35/15 A2994 RMK A01 T03540148  RH  029%=      5-min Rain = 0
KLE1 172021Z 16013G20KT 36/15 A2994 RMK A01 T03610150  RH  029%=      5-min Rain = 0
KLE1 172022Z 17016KT 37/15 A2994 RMK A01 T03660147  RH  027%=      5-min Rain = 0
KLE1 172023Z 17014KT 36/14 A2994 RMK A01 T03620143  RH  027%=      5-min Rain = 0
KLE1 172024Z 18013KT 36/15 A2994 RMK A01 T03620145  RH  027%=      5-min Rain = 0
KLE1 172025Z 18014KT 36/15 A2994 RMK A01 T03620145  RH  027%=      5-min Rain = 0
KLE1 172026Z 18016KT 36/14 A2994 RMK A01 T03590143  RH  028%=      5-min Rain = 0
KLE1 172027Z 20011KT 35/14 A2994 RMK A01 T03500140  RH  028%=      5-min Rain = 0
KLE1 172028Z 18012KT 35/14 A2993 RMK A01 T03460141  RH  029%=      5-min Rain = 0
KLE1 172029Z 14012KT 34/14 A2994 RMK A01 T03440142  RH  030%=      5-min Rain = 0
KLE1 172030Z 14010KT 34/14 A2993 RMK A01 T03430142  RH  030%=      5-min Rain = 0
KLE1 172031Z 14010KT 35/15 A2993 RMK A01 T03470146  RH  030%=      5-min Rain = 0
KLE1 172032Z 17012G17KT 36/15 A2993 RMK A01 T03560150  RH  029%=      5-min Rain = 0
KLE1 172033Z 16014KT 36/15 A2993 RMK A01 T03630148  RH  028%=      5-min Rain = 0
KLE1 172034Z 17015KT 36/15 A2993 RMK A01 T03640145  RH  027%=      5-min Rain = 0
KLE1 172035Z 17015KT 36/14 A2993 RMK A01 T03620143  RH  027%=      5-min Rain = 0
KLE1 172036Z 16015KT 36/14 A2993 RMK A01 T03580141  RH  027%=      5-min Rain = 0
KLE1 172037Z 15011KT 36/14 A2993 RMK A01 T03580141  RH  027%=      5-min Rain = 0
KLE1 172038Z 15009KT 36/14 A2993 RMK A01 T03570142  RH  028%=      5-min Rain = 0
KLE1 172039Z 14009KT 35/14 A2993 RMK A01 T03530138  RH  028%=      5-min Rain = 0
KLE1 172040Z 16008KT 35/14 A2993 RMK A01 T03470138  RH  028%=      5-min Rain = 0
KLE1 172041Z 16013KT 35/14 A2993 RMK A01 T03490142  RH  029%=      5-min Rain = 0
KLE1 172042Z 16016KT 35/15 A2993 RMK A01 T03540145  RH  029%=      5-min Rain = 0
KLE1 172043Z 15015KT 36/15 A2993 RMK A01 T03570146  RH  028%=      5-min Rain = 0
KLE1 172044Z 15015KT 36/15 A2993 RMK A01 T03600148  RH  028%=      5-min Rain = 0
KLE1 172045Z 15012KT 36/15 A2993 RMK A01 T03610146  RH  028%=      5-min Rain = 0
KLE1 172046Z 14012KT 36/15 A2993 RMK A01 T03590147  RH  028%=      5-min Rain = 0
KLE1 172047Z 14012KT 36/14 A2993 RMK A01 T03600144  RH  028%=      5-min Rain = 0
KLE1 172048Z 16013G20KT 36/15 A2993 RMK A01 T03600145  RH  028%=      5-min Rain = 0
KLE1 172049Z 16017KT 36/14 A2993 RMK A01 T03610143  RH  027%=      5-min Rain = 0
KLE1 172050Z 15015KT 36/14 A2993 RMK A01 T03590143  RH  027%=      5-min Rain = 0
KLE1 172051Z 16012KT 36/14 A2993 RMK A01 T03580142  RH  028%=      5-min Rain = 0
KLE1 172052Z 17010KT 36/14 A2993 RMK A01 T03560141  RH  028%=      5-min Rain = 0
KLE1 172053Z 16010KT 35/14 A2993 RMK A01 T03500139  RH  028%=      5-min Rain = 0
KLE1 172054Z 13012KT 35/14 A2993 RMK A01 T03470140  RH  029%=      5-min Rain = 0
KLE1 172055Z 14012KT 34/14 A2993 RMK A01 T03430137  RH  029%=      5-min Rain = 0
KLE1 172056Z 13011G16KT 34/14 A2993 RMK A01 T03410139  RH  030%=      5-min Rain = 0
KLE1 172057Z 14014KT 34/14 A2993 RMK A01 T03400140  RH  030%=      5-min Rain = 0
KLE1 172058Z 15018G23KT 34/14 A2992 RMK A01 T03400139  RH  030%=      5-min Rain = 0
KLE1 172059Z 17017G22KT 34/14 A2992 RMK A01 T03400140  RH  030%=      5-min Rain = 0
KLE1 172100Z 16015KT 34/14 A2993 RMK A01 T03430142  RH  030%=      5-min Rain = 0
KLE1 172101Z 17016KT 35/14 A2993 RMK A01 T03470143  RH  029%=      5-min Rain = 0
KLE1 172102Z 17017KT 35/14 A2993 RMK A01 T03500143  RH  029%=      5-min Rain = 0
KLE1 172103Z 16013KT 35/14 A2993 RMK A01 T03460141  RH  029%=      5-min Rain = 0
KLE1 172104Z 16012KT 34/14 A2993 RMK A01 T03430141  RH  030%=      5-min Rain = 0
KLE1 172105Z 16011KT 34/14 A2993 RMK A01 T03410141  RH  030%=      5-min Rain = 0
KLE1 172106Z 17010KT 34/14 A2993 RMK A01 T03400141  RH  030%=      5-min Rain = 0
KLE1 172107Z 16010KT 34/14 A2993 RMK A01 T03390142  RH  030%=      5-min Rain = 0
KLE1 172108Z 15010G15KT 34/14 A2993 RMK A01 T03390142  RH  031%=      5-min Rain = 0
KLE1 172109Z 15014KT 34/14 A2992 RMK A01 T03390143  RH  031%=      5-min Rain = 0
KLE1 172110Z 16015KT 34/14 A2992 RMK A01 T03400143  RH  031%=      5-min Rain = 0
KLE1 172111Z 15014KT 34/14 A2992 RMK A01 T03410142  RH  030%=      5-min Rain = 0
KLE1 172112Z 16014KT 34/14 A2992 RMK A01 T03410141  RH  030%=      5-min Rain = 0
KLE1 172113Z 16013KT 34/14 A2992 RMK A01 T03410140  RH  030%=      5-min Rain = 0
KLE1 172114Z 15014KT 34/14 A2992 RMK A01 T03430142  RH  030%=      5-min Rain = 0
KLE1 172115Z 16011KT 34/14 A2992 RMK A01 T03440142  RH  030%=      5-min Rain = 0
KLE1 172116Z 15011KT 35/14 A2992 RMK A01 T03450142  RH  030%=      5-min Rain = 0
KLE1 172117Z 15012KT 35/14 A2992 RMK A01 T03450142  RH  030%=      5-min Rain = 0
KLE1 172118Z 13013KT 34/14 A2992 RMK A01 T03440142  RH  030%=      5-min Rain = 0
KLE1 172119Z 14012KT 35/14 A2992 RMK A01 T03450142  RH  030%=      5-min Rain = 0
KLE1 172120Z 14010KT 35/14 A2992 RMK A01 T03460142  RH  029%=      5-min Rain = 0
KLE1 172121Z 15010KT 34/14 A2992 RMK A01 T03440144  RH  030%=      5-min Rain = 0
KLE1 172122Z 16010KT 34/15 A2992 RMK A01 T03440145  RH  030%=      5-min Rain = 0
KLE1 172123Z 15010KT 34/14 A2992 RMK A01 T03440143  RH  030%=      5-min Rain = 0
KLE1 172124Z 15010KT 34/14 A2992 RMK A01 T03420144  RH  030%=      5-min Rain = 0
KLE1 172125Z 15014KT 34/14 A2992 RMK A01 T03440143  RH  030%=      5-min Rain = 0
KLE1 172126Z 15015KT 35/14 A2992 RMK A01 T03490143  RH  029%=      5-min Rain = 0
KLE1 172127Z 15015KT 35/14 A2992 RMK A01 T03540142  RH  028%=      5-min Rain = 0
KLE1 172128Z 15013KT 36/14 A2992 RMK A01 T03560142  RH  028%=      5-min Rain = 0
KLE1 172129Z 17017G22KT 36/14 A2992 RMK A01 T03560143  RH  028%=      5-min Rain = 0
KLE1 172130Z 16014G19KT 36/14 A2992 RMK A01 T03550140  RH  028%=      5-min Rain = 0
KLE1 172131Z 16010G15KT 35/14 A2992 RMK A01 T03500139  RH  028%=      5-min Rain = 0
KLE1 172132Z 15015G20KT 35/14 A2991 RMK A01 T03470141  RH  029%=      5-min Rain = 0
KLE1 172133Z 16017KT 35/14 A2991 RMK A01 T03460142  RH  029%=      5-min Rain = 0
KLE1 172134Z 17016KT 34/14 A2991 RMK A01 T03440142  RH  030%=      5-min Rain = 0
KLE1 172135Z 18012KT 34/14 A2991 RMK A01 T03430143  RH  030%=      5-min Rain = 0
KLE1 172136Z 17015KT 34/14 A2991 RMK A01 T03420142  RH  030%=      5-min Rain = 0
KLE1 172137Z 17014G19KT 34/14 A2991 RMK A01 T03420142  RH  030%=      5-min Rain = 0
KLE1 172138Z 16016KT 34/14 A2991 RMK A01 T03430143  RH  030%=      5-min Rain = 0
KLE1 172139Z 16014KT 34/15 A2991 RMK A01 T03440145  RH  030%=      5-min Rain = 0
KLE1 172140Z 16015G20KT 34/15 A2991 RMK A01 T03440146  RH  030%=      5-min Rain = 0
KLE1 172141Z 16015KT 34/15 A2991 RMK A01 T03420145  RH  031%=      5-min Rain = 0
KLE1 172142Z 14013KT 34/15 A2991 RMK A01 T03430147  RH  031%=      5-min Rain = 0
KLE1 172143Z 14013KT 35/15 A2991 RMK A01 T03470147  RH  030%=      5-min Rain = 0
KLE1 172144Z 15012KT 35/15 A2991 RMK A01 T03480145  RH  030%=      5-min Rain = 0
KLE1 172145Z 15013KT 35/15 A2991 RMK A01 T03480146  RH  030%=      5-min Rain = 0
KLE1 172146Z 15016KT 35/15 A2991 RMK A01 T03470146  RH  030%=      5-min Rain = 0
KLE1 172147Z 15012KT 34/15 A2991 RMK A01 T03430145  RH  031%=      5-min Rain = 0
KLE1 172148Z 15012KT 34/15 A2991 RMK A01 T03420147  RH  031%=      5-min Rain = 0
KLE1 172149Z 14011KT 34/15 A2991 RMK A01 T03430148  RH  031%=      5-min Rain = 0
KLE1 172150Z 13012KT 35/15 A2991 RMK A01 T03460148  RH  031%=      5-min Rain = 0
KLE1 172151Z 13012KT 35/15 A2991 RMK A01 T03470147  RH  030%=      5-min Rain = 0
KLE1 172152Z 13010KT 34/15 A2991 RMK A01 T03440146  RH  031%=      5-min Rain = 0
KLE1 172153Z 12011KT 35/15 A2991 RMK A01 T03460149  RH  031%=      5-min Rain = 0
KLE1 172154Z 14014G20KT 35/15 A2991 RMK A01 T03500149  RH  030%=      5-min Rain = 0
KLE1 172155Z 14015G20KT 35/15 A2991 RMK A01 T03520146  RH  029%=      5-min Rain = 0
KLE1 172156Z 14015KT 35/14 A2991 RMK A01 T03500143  RH  029%=      5-min Rain = 0
KLE1 172157Z 15017KT 35/14 A2991 RMK A01 T03470140  RH  029%=      5-min Rain = 0
KLE1 172158Z 15013KT 34/14 A2991 RMK A01 T03430138  RH  029%=      5-min Rain = 0
KLE1 172159Z 16016G21KT 34/14 A2991 RMK A01 T03420141  RH  030%=      5-min Rain = 0
KLE1 172200Z 17016KT 34/14 A2991 RMK A01 T03410139  RH  030%=      5-min Rain = 0
KLE1 172201Z 18013KT 34/14 A2991 RMK A01 T03390138  RH  030%=      5-min Rain = 0
KLE1 172202Z 17009KT 34/14 A2991 RMK A01 T03370139  RH  030%=      5-min Rain = 0
KLE1 172203Z 16009KT 34/14 A2991 RMK A01 T03370139  RH  030%=      5-min Rain = 0
KLE1 172204Z 15012KT 34/14 A2991 RMK A01 T03380138  RH  030%=      5-min Rain = 0
KLE1 172205Z 15011KT 34/14 A2991 RMK A01 T03370137  RH  030%=      5-min Rain = 0
KLE1 172206Z 15010KT 34/14 A2991 RMK A01 T03370138  RH  030%=      5-min Rain = 0
KLE1 172207Z 16010KT 34/14 A2991 RMK A01 T03370139  RH  030%=      5-min Rain = 0
KLE1 172208Z 16009KT 34/14 A2991 RMK A01 T03380136  RH  030%=      5-min Rain = 0
KLE1 172209Z 15013KT 34/14 A2991 RMK A01 T03400136  RH  029%=      5-min Rain = 0
KLE1 172210Z 16014KT 34/14 A2991 RMK A01 T03430140  RH  030%=      5-min Rain = 0
KLE1 172211Z 16012KT 34/14 A2991 RMK A01 T03430142  RH  030%=      5-min Rain = 0
KLE1 172212Z 15013KT 34/14 A2991 RMK A01 T03440143  RH  030%=      5-min Rain = 0
KLE1 172213Z 15016KT 34/14 A2991 RMK A01 T03430142  RH  030%=      5-min Rain = 0
KLE1 172214Z 15014KT 34/14 A2991 RMK A01 T03410140  RH  030%=      5-min Rain = 0
KLE1 172215Z 15015KT 34/14 A2991 RMK A01 T03400141  RH  030%=      5-min Rain = 0
KLE1 172216Z 15014KT 34/14 A2991 RMK A01 T03390141  RH  030%=      5-min Rain = 0
KLE1 172217Z 14013KT 34/14 A2991 RMK A01 T03400142  RH  030%=      5-min Rain = 0
KLE1 172218Z 13016KT 34/14 A2991 RMK A01 T03410140  RH  030%=      5-min Rain = 0
KLE1 172219Z 13015KT 34/14 A2991 RMK A01 T03410140  RH  030%=      5-min Rain = 0
KLE1 172220Z 14014KT 34/14 A2991 RMK A01 T03410140  RH  030%=      5-min Rain = 0
KLE1 172221Z 14014KT 34/14 A2991 RMK A01 T03400140  RH  030%=      5-min Rain = 0
KLE1 172222Z 14014KT 34/14 A2991 RMK A01 T03390140  RH  030%=      5-min Rain = 0
KLE1 172223Z 14013KT 34/14 A2991 RMK A01 T03390141  RH  030%=      5-min Rain = 0
KLE1 172224Z 15012KT 34/14 A2991 RMK A01 T03390143  RH  031%=      5-min Rain = 0
KLE1 172225Z 15013KT 34/14 A2991 RMK A01 T03390144  RH  031%=      5-min Rain = 0
KLE1 172226Z 15015KT 34/14 A2991 RMK A01 T03390144  RH  031%=      5-min Rain = 0
KLE1 172227Z 16015KT 34/14 A2991 RMK A01 T03380144  RH  031%=      5-min Rain = 0
KLE1 172228Z 16012KT 34/14 A2991 RMK A01 T03380144  RH  031%=      5-min Rain = 0
KLE1 172229Z 15012KT 34/14 A2991 RMK A01 T03380144  RH  031%=      5-min Rain = 0
KLE1 172230Z 15013KT 34/15 A2991 RMK A01 T03400147  RH  031%=      5-min Rain = 0
KLE1 172231Z 15015KT 34/15 A2991 RMK A01 T03420147  RH  031%=      5-min Rain = 0
KLE1 172232Z 15015KT 34/15 A2991 RMK A01 T03410148  RH  031%=      5-min Rain = 0
KLE1 172233Z 15014KT 34/15 A2991 RMK A01 T03390147  RH  032%=      5-min Rain = 0
KLE1 172234Z 15013KT 34/15 A2991 RMK A01 T03370146  RH  032%=      5-min Rain = 0
KLE1 172235Z 14012KT 34/15 A2991 RMK A01 T03360146  RH  032%=      5-min Rain = 0
KLE1 172236Z 14015KT 34/15 A2991 RMK A01 T03360146  RH  032%=      5-min Rain = 0
KLE1 172237Z 14015KT 34/14 A2991 RMK A01 T03360144  RH  032%=      5-min Rain = 0
KLE1 172238Z 14013KT 34/14 A2991 RMK A01 T03350143  RH  032%=      5-min Rain = 0
KLE1 172239Z 13011KT 34/14 A2991 RMK A01 T03350144  RH  032%=      5-min Rain = 0
KLE1 172240Z 13011KT 34/15 A2991 RMK A01 T03380145  RH  031%=      5-min Rain = 0
KLE1 172241Z 13011KT 34/15 A2991 RMK A01 T03400145  RH  031%=      5-min Rain = 0
KLE1 172242Z 13011KT 34/15 A2991 RMK A01 T03410145  RH  031%=      5-min Rain = 0
KLE1 172243Z 14017KT 34/15 A299 RMK A01 T03420146  RH  031%=      5-min Rain = 0
KLE1 172244Z 16016KT 34/14 A299 RMK A01 T03420144  RH  031%=      5-min Rain = 0
KLE1 172245Z 16014KT 34/14 A299 RMK A01 T03410142  RH  030%=      5-min Rain = 0
KLE1 172246Z 15014KT 34/14 A299 RMK A01 T03400144  RH  031%=      5-min Rain = 0
KLE1 172247Z 15013KT 34/14 A299 RMK A01 T03410142  RH  030%=      5-min Rain = 0
KLE1 172248Z 15013KT 34/14 A299 RMK A01 T03400142  RH  030%=      5-min Rain = 0
KLE1 172249Z 15013KT 34/14 A299 RMK A01 T03420144  RH  030%=      5-min Rain = 0
KLE1 172250Z 14012G18KT 34/15 A299 RMK A01 T03440145  RH  030%=      5-min Rain = 0
KLE1 172251Z 15014KT 35/15 A299 RMK A01 T03450146  RH  030%=      5-min Rain = 0
KLE1 172252Z 16017KT 35/15 A299 RMK A01 T03470147  RH  030%=      5-min Rain = 0
KLE1 172253Z 16016KT 35/14 A299 RMK A01 T03480144  RH  030%=      5-min Rain = 0
KLE1 172254Z 16013KT 35/15 A299 RMK A01 T03480145  RH  030%=      5-min Rain = 0
KLE1 172255Z 16011KT 35/15 A299 RMK A01 T03490146  RH  030%=      5-min Rain = 0
KLE1 172256Z 16009KT 35/15 A299 RMK A01 T03500146  RH  029%=      5-min Rain = 0
KLE1 172257Z 15012KT 35/15 A299 RMK A01 T03510145  RH  029%=      5-min Rain = 0
KLE1 172258Z 15011KT 35/15 A299 RMK A01 T03510145  RH  029%=      5-min Rain = 0
KLE1 172259Z 16015G20KT 35/15 A299 RMK A01 T03500146  RH  029%=      5-min Rain = 0
KLE1 172300Z 16017KT 35/14 A299 RMK A01 T03500143  RH  029%=      5-min Rain = 0
KLE1 172301Z 15016KT 35/14 A299 RMK A01 T03490144  RH  029%=      5-min Rain = 0
KLE1 172302Z 13017KT 35/14 A299 RMK A01 T03480141  RH  029%=      5-min Rain = 0
KLE1 172303Z 14015KT 35/14 A299 RMK A01 T03470141  RH  029%=      5-min Rain = 0
KLE1 172304Z 14014KT 35/14 A299 RMK A01 T03470143  RH  029%=      5-min Rain = 0
KLE1 172305Z 14011KT 35/14 A299 RMK A01 T03480143  RH  029%=      5-min Rain = 0
KLE1 172306Z 13013KT 35/14 A299 RMK A01 T03500144  RH  029%=      5-min Rain = 0
KLE1 172307Z 14015KT 35/14 A299 RMK A01 T03500142  RH  029%=      5-min Rain = 0
KLE1 172308Z 14014KT 35/14 A299 RMK A01 T03480142  RH  029%=      5-min Rain = 0
KLE1 172309Z 14014KT 35/14 A299 RMK A01 T03470141  RH  029%=      5-min Rain = 0
KLE1 172310Z 14014KT 35/14 A299 RMK A01 T03460141  RH  029%=      5-min Rain = 0
KLE1 172311Z 15014KT 35/14 A299 RMK A01 T03460142  RH  029%=      5-min Rain = 0
KLE1 172312Z 14015KT 35/14 A299 RMK A01 T03450142  RH  029%=      5-min Rain = 0
KLE1 172313Z 14014KT 35/14 A299 RMK A01 T03450142  RH  030%=      5-min Rain = 0
KLE1 172314Z 14018KT 35/14 A299 RMK A01 T03450143  RH  030%=      5-min Rain = 0
KLE1 172315Z 15015KT 35/14 A299 RMK A01 T03450143  RH  030%=      5-min Rain = 0
KLE1 172316Z 15014KT 35/14 A299 RMK A01 T03450144  RH  030%=      5-min Rain = 0
KLE1 172317Z 15014KT 35/15 A299 RMK A01 T03450145  RH  030%=      5-min Rain = 0
KLE1 172318Z 17016KT 35/15 A299 RMK A01 T03450145  RH  030%=      5-min Rain = 0
KLE1 172319Z 16014KT 34/15 A299 RMK A01 T03440145  RH  030%=      5-min Rain = 0
KLE1 172320Z 16014KT 34/15 A299 RMK A01 T03430147  RH  031%=      5-min Rain = 0
KLE1 172321Z 16015KT 34/15 A299 RMK A01 T03430145  RH  030%=      5-min Rain = 0
KLE1 172322Z 16016KT 34/14 A299 RMK A01 T03420144  RH  030%=      5-min Rain = 0
KLE1 172323Z 16015KT 34/14 A299 RMK A01 T03410143  RH  030%=      5-min Rain = 0
KLE1 172324Z 16014KT 34/14 A299 RMK A01 T03400144  RH  031%=      5-min Rain = 0
KLE1 172325Z 16013KT 34/15 A299 RMK A01 T03400145  RH  031%=      5-min Rain = 0
KLE1 172326Z 16012KT 34/14 A299 RMK A01 T03400144  RH  031%=      5-min Rain = 0
KLE1 172327Z 16014KT 34/14 A299 RMK A01 T03400144  RH  031%=      5-min Rain = 0
KLE1 172328Z 18015KT 34/14 A299 RMK A01 T03400144  RH  031%=      5-min Rain = 0
KLE1 172329Z 18014G19KT 34/14 A299 RMK A01 T03400144  RH  031%=      5-min Rain = 0
KLE1 172330Z 17013KT 34/14 A299 RMK A01 T03390144  RH  031%=      5-min Rain = 0
KLE1 172331Z 16013KT 34/15 A299 RMK A01 T03380145  RH  031%=      5-min Rain = 0
KLE1 172332Z 16013KT 34/14 A299 RMK A01 T03380144  RH  031%=      5-min Rain = 0
KLE1 172333Z 16011KT 34/15 A299 RMK A01 T03380145  RH  031%=      5-min Rain = 0
KLE1 172334Z 17010KT 34/15 A299 RMK A01 T03370145  RH  032%=      5-min Rain = 0
KLE1 172335Z 16012KT 34/15 A299 RMK A01 T03370145  RH  032%=      5-min Rain = 0
KLE1 172336Z 16010KT 34/15 A299 RMK A01 T03370146  RH  032%=      5-min Rain = 0
KLE1 172337Z 15010KT 34/15 A299 RMK A01 T03370147  RH  032%=      5-min Rain = 0
KLE1 172338Z 16013KT 34/15 A299 RMK A01 T03370148  RH  032%=      5-min Rain = 0
KLE1 172339Z 15014KT 34/15 A299 RMK A01 T03370149  RH  032%=      5-min Rain = 0
KLE1 172340Z 15014KT 34/15 A299 RMK A01 T03370150  RH  033%=      5-min Rain = 0
KLE1 172341Z 14016KT 34/15 A299 RMK A01 T03360149  RH  033%=      5-min Rain = 0
KLE1 172342Z 15016KT 34/15 A299 RMK A01 T03350149  RH  033%=      5-min Rain = 0
KLE1 172343Z 15016KT 33/15 A299 RMK A01 T03340149  RH  033%=      5-min Rain = 0
KLE1 172344Z 15015KT 33/15 A299 RMK A01 T03340149  RH  033%=      5-min Rain = 0
KLE1 172345Z 15014KT 33/15 A299 RMK A01 T03330149  RH  033%=      5-min Rain = 0
KLE1 172346Z 15014KT 33/15 A299 RMK A01 T03330149  RH  033%=      5-min Rain = 0
KLE1 172347Z 15012KT 33/15 A299 RMK A01 T03330149  RH  033%=      5-min Rain = 0
KLE1 172348Z 14014KT 33/15 A299 RMK A01 T03330150  RH  033%=      5-min Rain = 0
KLE1 172349Z 14013KT 33/15 A299 RMK A01 T03320149  RH  033%=      5-min Rain = 0
KLE1 172350Z 13015G21KT 33/15 A299 RMK A01 T03320150  RH  033%=      5-min Rain = 0
KLE1 172351Z 13015KT 33/15 A299 RMK A01 T03310149  RH  033%=      5-min Rain = 0
KLE1 172352Z 14016KT 33/15 A299 RMK A01 T03300149  RH  034%=      5-min Rain = 0
KLE1 172353Z 14014KT 33/15 A299 RMK A01 T03300149  RH  034%=      5-min Rain = 0
KLE1 172354Z 14013KT 33/15 A299 RMK A01 T03290150  RH  034%=      5-min Rain = 0
KLE1 172355Z 14014KT 33/15 A299 RMK A01 T03290150  RH  034%=      5-min Rain = 0
KLE1 172356Z 14014KT 33/15 A299 RMK A01 T03280150  RH  034%=      5-min Rain = 0
KLE1 172357Z 14016KT 33/15 A299 RMK A01 T03290150  RH  034%=      5-min Rain = 0
KLE1 172358Z 14015KT 33/15 A299 RMK A01 T03290149  RH  034%=      5-min Rain = 0
KLE1 172359Z 13015KT 33/15 A299 RMK A01 T03300149  RH  034%=      5-min Rain = 0
KLE1 180000Z 14015KT 33/15 A299 RMK A01 T03300149  RH  034%=      5-min Rain = 0
KLE1 180001Z 14012KT 33/15 A2991 RMK A01 T03300149  RH  034%=      5-min Rain = 0
KLE1 180002Z 13013KT 33/15 A2991 RMK A01 T03300150  RH  034%=      5-min Rain = 0
KLE1 180003Z 14012KT 33/15 A2991 RMK A01 T03300150  RH  034%=      5-min Rain = 0
KLE1 180004Z 13016KT 33/15 A2991 RMK A01 T03300150  RH  034%=      5-min Rain = 0
KLE1 180005Z 13016KT 33/15 A299 RMK A01 T03300150  RH  034%=      5-min Rain = 0
KLE1 180006Z 14017KT 33/15 A299 RMK A01 T03300151  RH  034%=      5-min Rain = 0
KLE1 180007Z 13014KT 33/15 A299 RMK A01 T03290151  RH  034%=      5-min Rain = 0
KLE1 180008Z 14016KT 33/15 A2991 RMK A01 T03290152  RH  035%=      5-min Rain = 0
KLE1 180009Z 14012KT 33/15 A2991 RMK A01 T03280152  RH  035%=      5-min Rain = 0
KLE1 180010Z 15014KT 33/15 A2991 RMK A01 T03270153  RH  035%=      5-min Rain = 0
KLE1 180011Z 15016KT 33/15 A2991 RMK A01 T03270152  RH  035%=      5-min Rain = 0
KLE1 180012Z 14016KT 33/15 A299 RMK A01 T03260152  RH  035%=      5-min Rain = 0
KLE1 180013Z 14016KT 33/15 A299 RMK A01 T03260151  RH  035%=      5-min Rain = 0
KLE1 180014Z 15014KT 33/15 A299 RMK A01 T03250151  RH  035%=      5-min Rain = 0
KLE1 180015Z 15016KT 33/15 A299 RMK A01 T03250152  RH  035%=      5-min Rain = 0
KLE1 180016Z 15014KT 32/15 A299 RMK A01 T03240151  RH  035%=      5-min Rain = 0
KLE1 180017Z 15014KT 32/15 A299 RMK A01 T03240152  RH  035%=      5-min Rain = 0
KLE1 180018Z 15014KT 32/15 A299 RMK A01 T03230152  RH  036%=      5-min Rain = 0
KLE1 180019Z 15014KT 32/15 A299 RMK A01 T03220152  RH  036%=      5-min Rain = 0
KLE1 180020Z 14014KT 32/15 A299 RMK A01 T03220152  RH  036%=      5-min Rain = 0
KLE1 180021Z 15014KT 32/15 A299 RMK A01 T03210152  RH  036%=      5-min Rain = 0
KLE1 180022Z 15017KT 32/15 A299 RMK A01 T03210152  RH  036%=      5-min Rain = 0
KLE1 180023Z 15016KT 32/15 A299 RMK A01 T03210152  RH  036%=      5-min Rain = 0
KLE1 180024Z 15014KT 32/15 A299 RMK A01 T03210152  RH  036%=      5-min Rain = 0
KLE1 180025Z 15014KT 32/15 A299 RMK A01 T03210152  RH  036%=      5-min Rain = 0
KLE1 180026Z 14014KT 32/15 A299 RMK A01 T03200152  RH  036%=      5-min Rain = 0
KLE1 180027Z 14014KT 32/15 A299 RMK A01 T03200152  RH  036%=      5-min Rain = 0
KLE1 180028Z 14013KT 32/15 A299 RMK A01 T03190152  RH  037%=      5-min Rain = 0
KLE1 180029Z 15013KT 32/15 A299 RMK A01 T03180152  RH  037%=      5-min Rain = 0
KLE1 180030Z 15014KT 32/15 A299 RMK A01 T03180153  RH  037%=      5-min Rain = 0
KLE1 180031Z 14014KT 32/15 A299 RMK A01 T03170152  RH  037%=      5-min Rain = 0
KLE1 180032Z 15013KT 32/15 A299 RMK A01 T03180153  RH  037%=      5-min Rain = 0
KLE1 180033Z 14013KT 32/15 A299 RMK A01 T03170153  RH  037%=      5-min Rain = 0
KLE1 180034Z 14012KT 32/15 A299 RMK A01 T03170153  RH  037%=      5-min Rain = 0
KLE1 180035Z 14011KT 32/15 A299 RMK A01 T03160153  RH  037%=      5-min Rain = 0
KLE1 180036Z 14011KT 32/15 A299 RMK A01 T03150153  RH  037%=      5-min Rain = 0
KLE1 180037Z 15011KT 31/15 A299 RMK A01 T03140152  RH  038%=      5-min Rain = 0
KLE1 180038Z 15011KT 31/15 A2991 RMK A01 T03140153  RH  038%=      5-min Rain = 0
KLE1 180039Z 15011KT 31/15 A2991 RMK A01 T03130153  RH  038%=      5-min Rain = 0
KLE1 180040Z 14010KT 31/15 A2991 RMK A01 T03120153  RH  038%=      5-min Rain = 0
KLE1 180041Z 14011KT 31/15 A2991 RMK A01 T03120153  RH  038%=      5-min Rain = 0
KLE1 180042Z 14012KT 31/15 A2991 RMK A01 T03110153  RH  038%=      5-min Rain = 0
KLE1 180043Z 14012KT 31/15 A2991 RMK A01 T03120152  RH  038%=      5-min Rain = 0
KLE1 180044Z 14012KT 31/15 A2991 RMK A01 T03120152  RH  038%=      5-min Rain = 0
KLE1 180045Z 14013KT 31/15 A2991 RMK A01 T03120152  RH  038%=      5-min Rain = 0
KLE1 180046Z 14012KT 31/15 A2991 RMK A01 T03120152  RH  038%=      5-min Rain = 0
KLE1 180047Z 14011KT 31/15 A2991 RMK A01 T03120152  RH  038%=      5-min Rain = 0
KLE1 180048Z 14011KT 31/15 A2991 RMK A01 T03110152  RH  038%=      5-min Rain = 0
KLE1 180049Z 14010KT 31/15 A2991 RMK A01 T03100152  RH  038%=      5-min Rain = 0
KLE1 180050Z 14012KT 31/15 A2991 RMK A01 T03090152  RH  038%=      5-min Rain = 0
KLE1 180051Z 14013KT 31/15 A2991 RMK A01 T03090152  RH  039%=      5-min Rain = 0
KLE1 180052Z 14012KT 31/15 A2991 RMK A01 T03090152  RH  039%=      5-min Rain = 0
KLE1 180053Z 14012KT 31/15 A2991 RMK A01 T03090152  RH  039%=      5-min Rain = 0
KLE1 180054Z 14011KT 31/15 A2991 RMK A01 T03090152  RH  039%=      5-min Rain = 0
KLE1 180055Z 14011KT 31/15 A2991 RMK A01 T03080152  RH  039%=      5-min Rain = 0
KLE1 180056Z 14011KT 31/15 A2991 RMK A01 T03070152  RH  039%=      5-min Rain = 0
KLE1 180057Z 14010KT 31/15 A2991 RMK A01 T03070152  RH  039%=      5-min Rain = 0
KLE1 180058Z 13011KT 31/15 A2991 RMK A01 T03070152  RH  039%=      5-min Rain = 0
KLE1 180059Z 13011KT 31/15 A2991 RMK A01 T03060152  RH  039%=      5-min Rain = 0
KLE1 180100Z 14010KT 31/15 A2991 RMK A01 T03060152  RH  039%=      5-min Rain = 0
KLE1 180101Z 14011KT 31/15 A2991 RMK A01 T03050152  RH  039%=      5-min Rain = 0
KLE1 180102Z 13011KT 31/15 A2991 RMK A01 T03050152  RH  039%=      5-min Rain = 0
KLE1 180103Z 14011KT 31/15 A2991 RMK A01 T03050152  RH  040%=      5-min Rain = 0
KLE1 180104Z 13011KT 30/15 A2991 RMK A01 T03040152  RH  040%=      5-min Rain = 0
KLE1 180105Z 14011KT 30/15 A2991 RMK A01 T03040152  RH  040%=      5-min Rain = 0
KLE1 180106Z 14010KT 30/15 A2991 RMK A01 T03030152  RH  040%=      5-min Rain = 0
KLE1 180107Z 14010KT 30/15 A2991 RMK A01 T03020152  RH  040%=      5-min Rain = 0
KLE1 180108Z 14010KT 30/15 A2991 RMK A01 T03020152  RH  040%=      5-min Rain = 0
KLE1 180109Z 14010KT 30/15 A2991 RMK A01 T03010152  RH  040%=      5-min Rain = 0
KLE1 180110Z 14010KT 30/15 A2991 RMK A01 T03010152  RH  041%=      5-min Rain = 0
KLE1 180111Z 14010KT 30/15 A2991 RMK A01 T03000152  RH  041%=      5-min Rain = 0
KLE1 180112Z 14010KT 30/15 A2991 RMK A01 T03000152  RH  041%=      5-min Rain = 0
KLE1 180113Z 14010KT 30/15 A2991 RMK A01 T03000153  RH  041%=      5-min Rain = 0
KLE1 180114Z 14010KT 30/15 A2991 RMK A01 T02990152  RH  041%=      5-min Rain = 0
KLE1 180115Z 14011KT 30/15 A2991 RMK A01 T02990152  RH  041%=      5-min Rain = 0
KLE1 180116Z 14010KT 30/15 A2992 RMK A01 T02990152  RH  041%=      5-min Rain = 0
KLE1 180117Z 14010KT 30/15 A2992 RMK A01 T03000152  RH  041%=      5-min Rain = 0
KLE1 180118Z 14010KT 30/15 A2992 RMK A01 T02990152  RH  041%=      5-min Rain = 0
KLE1 180119Z 14011KT 30/15 A2992 RMK A01 T02980152  RH  041%=      5-min Rain = 0
KLE1 180120Z 14010KT 30/15 A2992 RMK A01 T02990152  RH  041%=      5-min Rain = 0
KLE1 180121Z 14011KT 30/15 A2992 RMK A01 T02980152  RH  041%=      5-min Rain = 0
KLE1 180122Z 14011KT 30/15 A2992 RMK A01 T02980152  RH  041%=      5-min Rain = 0
KLE1 180123Z 14011KT 30/15 A2992 RMK A01 T02980151  RH  041%=      5-min Rain = 0
KLE1 180124Z 14010KT 30/15 A2992 RMK A01 T02980151  RH  041%=      5-min Rain = 0
KLE1 180125Z 14010KT 30/15 A2992 RMK A01 T02980151  RH  041%=      5-min Rain = 0
KLE1 180126Z 14010KT 30/15 A2992 RMK A01 T02970151  RH  041%=      5-min Rain = 0
KLE1 180127Z 14011KT 30/15 A2992 RMK A01 T02970151  RH  041%=      5-min Rain = 0
KLE1 180128Z 14010KT 30/15 A2992 RMK A01 T02970151  RH  041%=      5-min Rain = 0
KLE1 180129Z 14009KT 30/15 A2992 RMK A01 T02960151  RH  041%=      5-min Rain = 0
KLE1 180130Z 14010KT 30/15 A2992 RMK A01 T02960151  RH  041%=      5-min Rain = 0
KLE1 180131Z 14010KT 30/15 A2992 RMK A01 T02950151  RH  042%=      5-min Rain = 0
KLE1 180132Z 13010KT 30/15 A2992 RMK A01 T02950151  RH  042%=      5-min Rain = 0
KLE1 180133Z 14010KT 29/15 A2992 RMK A01 T02940151  RH  042%=      5-min Rain = 0
KLE1 180134Z 13010KT 29/15 A2992 RMK A01 T02930151  RH  042%=      5-min Rain = 0
KLE1 180135Z 13009KT 29/15 A2992 RMK A01 T02920151  RH  042%=      5-min Rain = 0
KLE1 180136Z 14010KT 29/15 A2992 RMK A01 T02910151  RH  042%=      5-min Rain = 0
KLE1 180137Z 14010KT 29/15 A2992 RMK A01 T02910151  RH  043%=      5-min Rain = 0
KLE1 180138Z 14009KT 29/15 A2992 RMK A01 T02910151  RH  043%=      5-min Rain = 0
KLE1 180139Z 14010KT 29/15 A2992 RMK A01 T02900151  RH  043%=      5-min Rain = 0
KLE1 180140Z 14010KT 29/15 A2992 RMK A01 T02910151  RH  043%=      5-min Rain = 0
KLE1 180141Z 14009KT 29/15 A2992 RMK A01 T02900151  RH  043%=      5-min Rain = 0
KLE1 180142Z 14010KT 29/15 A2992 RMK A01 T02910151  RH  043%=      5-min Rain = 0
KLE1 180143Z 14009KT 29/15 A2992 RMK A01 T02900151  RH  043%=      5-min Rain = 0
KLE1 180144Z 14009KT 29/15 A2992 RMK A01 T02900151  RH  043%=      5-min Rain = 0
KLE1 180145Z 14010KT 29/15 A2992 RMK A01 T02900151  RH  043%=      5-min Rain = 0
KLE1 180146Z 14009KT 29/15 A2992 RMK A01 T02890151  RH  043%=      5-min Rain = 0
KLE1 180147Z 14010KT 29/15 A2992 RMK A01 T02890151  RH  043%=      5-min Rain = 0
KLE1 180148Z 14009KT 29/15 A2992 RMK A01 T02890151  RH  043%=      5-min Rain = 0
KLE1 180149Z 14009KT 29/15 A2992 RMK A01 T02880151  RH  043%=      5-min Rain = 0
KLE1 180150Z 14009KT 29/15 A2992 RMK A01 T02880151  RH  043%=      5-min Rain = 0
KLE1 180151Z 14009KT 29/15 A2992 RMK A01 T02880151  RH  043%=      5-min Rain = 0
KLE1 180152Z 13009KT 29/15 A2992 RMK A01 T02870151  RH  043%=      5-min Rain = 0
KLE1 180153Z 14009KT 29/15 A2993 RMK A01 T02870151  RH  044%=      5-min Rain = 0
KLE1 180154Z 14009KT 29/15 A2993 RMK A01 T02860151  RH  044%=      5-min Rain = 0
KLE1 180155Z 14009KT 29/15 A2993 RMK A01 T02850151  RH  044%=      5-min Rain = 0
KLE1 180156Z 13009KT 28/15 A2993 RMK A01 T02840151  RH  044%=      5-min Rain = 0
KLE1 180157Z 13008KT 28/15 A2993 RMK A01 T02840151  RH  044%=      5-min Rain = 0
KLE1 180158Z 13008KT 28/15 A2993 RMK A01 T02840151  RH  044%=      5-min Rain = 0
KLE1 180159Z 13008KT 28/15 A2993 RMK A01 T02830151  RH  045%=      5-min Rain = 0
KLE1 180200Z 13008KT 28/15 A2993 RMK A01 T02820150  RH  045%=      5-min Rain = 0
KLE1 180201Z 13007KT 28/15 A2993 RMK A01 T02820151  RH  045%=      5-min Rain = 0
KLE1 180202Z 13007KT 28/15 A2993 RMK A01 T02810150  RH  045%=      5-min Rain = 0
KLE1 180203Z 13007KT 28/15 A2993 RMK A01 T02810151  RH  045%=      5-min Rain = 0
KLE1 180204Z 13007KT 28/15 A2993 RMK A01 T02800150  RH  045%=      5-min Rain = 0
KLE1 180205Z 13007KT 28/15 A2993 RMK A01 T02800151  RH  045%=      5-min Rain = 0
KLE1 180206Z 13006KT 28/15 A2993 RMK A01 T02790150  RH  045%=      5-min Rain = 0
KLE1 180207Z 12006KT 28/15 A2993 RMK A01 T02790151  RH  046%=      5-min Rain = 0
KLE1 180208Z 12006KT 28/15 A2993 RMK A01 T02780150  RH  046%=      5-min Rain = 0
KLE1 180209Z 12006KT 28/15 A2994 RMK A01 T02770150  RH  046%=      5-min Rain = 0
KLE1 180210Z 12006KT 28/15 A2994 RMK A01 T02770150  RH  046%=      5-min Rain = 0
KLE1 180211Z 12006KT 28/15 A2994 RMK A01 T02760150  RH  046%=      5-min Rain = 0
KLE1 180212Z 12006KT 28/15 A2994 RMK A01 T02760150  RH  046%=      5-min Rain = 0
KLE1 180213Z 12006KT 28/15 A2994 RMK A01 T02750150  RH  046%=      5-min Rain = 0
KLE1 180214Z 12007KT 27/15 A2994 RMK A01 T02740150  RH  047%=      5-min Rain = 0
KLE1 180215Z 12007KT 27/15 A2994 RMK A01 T02740150  RH  047%=      5-min Rain = 0
KLE1 180216Z 12007KT 27/15 A2994 RMK A01 T02730150  RH  047%=      5-min Rain = 0
KLE1 180217Z 12007KT 27/15 A2994 RMK A01 T02730150  RH  047%=      5-min Rain = 0
KLE1 180218Z 12007KT 27/15 A2994 RMK A01 T02730151  RH  047%=      5-min Rain = 0
KLE1 180219Z 12007KT 27/15 A2994 RMK A01 T02720151  RH  047%=      5-min Rain = 0
KLE1 180220Z 12007KT 27/15 A2994 RMK A01 T02720151  RH  047%=      5-min Rain = 0
KLE1 180221Z 12007KT 27/15 A2994 RMK A01 T02710150  RH  048%=      5-min Rain = 0
KLE1 180222Z 12007KT 27/15 A2994 RMK A01 T02710151  RH  048%=      5-min Rain = 0
KLE1 180223Z 11007KT 27/15 A2994 RMK A01 T02710151  RH  048%=      5-min Rain = 0
KLE1 180224Z 11007KT 27/15 A2994 RMK A01 T02710150  RH  048%=      5-min Rain = 0
KLE1 180225Z 11007KT 27/15 A2994 RMK A01 T02710150  RH  048%=      5-min Rain = 0
KLE1 180226Z 11007KT 27/15 A2994 RMK A01 T02710151  RH  048%=      5-min Rain = 0
KLE1 180227Z 11007KT 27/15 A2994 RMK A01 T02700150  RH  048%=      5-min Rain = 0
KLE1 180228Z 11007KT 27/15 A2994 RMK A01 T02700150  RH  048%=      5-min Rain = 0
KLE1 180229Z 11006KT 27/15 A2994 RMK A01 T02700150  RH  048%=      5-min Rain = 0
KLE1 180230Z 11007KT 27/15 A2994 RMK A01 T02700150  RH  048%=      5-min Rain = 0
KLE1 180231Z 11007KT 27/15 A2994 RMK A01 T02700150  RH  048%=      5-min Rain = 0
KLE1 180232Z 11007KT 27/15 A2994 RMK A01 T02690150  RH  048%=      5-min Rain = 0
KLE1 180233Z 11007KT 27/15 A2994 RMK A01 T02690150  RH  048%=      5-min Rain = 0
KLE1 180234Z 11007KT 27/15 A2994 RMK A01 T02690150  RH  048%=      5-min Rain = 0
KLE1 180235Z 11007KT 27/15 A2994 RMK A01 T02690150  RH  048%=      5-min Rain = 0
KLE1 180236Z 11007KT 27/15 A2994 RMK A01 T02690150  RH  048%=      5-min Rain = 0
KLE1 180237Z 11007KT 27/15 A2994 RMK A01 T02680150  RH  048%=      5-min Rain = 0
KLE1 180238Z 11007KT 27/15 A2994 RMK A01 T02680151  RH  048%=      5-min Rain = 0
KLE1 180239Z 11007KT 27/15 A2994 RMK A01 T02680150  RH  049%=      5-min Rain = 0
KLE1 180240Z 11007KT 27/15 A2994 RMK A01 T02680151  RH  049%=      5-min Rain = 0
KLE1 180241Z 11007KT 27/15 A2994 RMK A01 T02670150  RH  049%=      5-min Rain = 0
KLE1 180242Z 11007KT 27/15 A2994 RMK A01 T02670150  RH  049%=      5-min Rain = 0
KLE1 180243Z 11007KT 27/15 A2994 RMK A01 T02660150  RH  049%=      5-min Rain = 0
KLE1 180244Z 12008KT 27/15 A2994 RMK A01 T02660150  RH  049%=      5-min Rain = 0
KLE1 180245Z 12008KT 27/15 A2994 RMK A01 T02670151  RH  049%=      5-min Rain = 0
KLE1 180246Z 12009KT 27/15 A2994 RMK A01 T02670151  RH  049%=      5-min Rain = 0
KLE1 180247Z 12008KT 27/15 A2994 RMK A01 T02670151  RH  049%=      5-min Rain = 0
KLE1 180248Z 12009KT 27/15 A2994 RMK A01 T02660151  RH  049%=      5-min Rain = 0
KLE1 180249Z 12009KT 27/15 A2994 RMK A01 T02670151  RH  049%=      5-min Rain = 0
KLE1 180250Z 12009KT 27/15 A2994 RMK A01 T02660151  RH  049%=      5-min Rain = 0
KLE1 180251Z 12009KT 27/15 A2994 RMK A01 T02660151  RH  049%=      5-min Rain = 0
KLE1 180252Z 12009KT 27/15 A2994 RMK A01 T02670152  RH  049%=      5-min Rain = 0
KLE1 180253Z 12009KT 27/15 A2994 RMK A01 T02670152  RH  049%=      5-min Rain = 0
KLE1 180254Z 12008KT 27/15 A2994 RMK A01 T02660152  RH  049%=      5-min Rain = 0
KLE1 180255Z 12009KT 27/15 A2994 RMK A01 T02660152  RH  050%=      5-min Rain = 0
KLE1 180256Z 12009KT 27/15 A2994 RMK A01 T02660152  RH  049%=      5-min Rain = 0
KLE1 180257Z 12009KT 27/15 A2994 RMK A01 T02660151  RH  049%=      5-min Rain = 0
KLE1 180258Z 12008KT 27/15 A2994 RMK A01 T02660152  RH  049%=      5-min Rain = 0
KLE1 180259Z 12008KT 27/15 A2995 RMK A01 T02660152  RH  049%=      5-min Rain = 0
KLE1 180300Z 12008KT 27/15 A2995 RMK A01 T02660152  RH  049%=      5-min Rain = 0
KLE1 180301Z 12008KT 27/15 A2995 RMK A01 T02660152  RH  049%=      5-min Rain = 0
KLE1 180302Z 12008KT 27/15 A2994 RMK A01 T02670152  RH  049%=      5-min Rain = 0
KLE1 180303Z 12008KT 27/15 A2994 RMK A01 T02670152  RH  049%=      5-min Rain = 0
KLE1 180304Z 12008KT 27/15 A2994 RMK A01 T02660152  RH  050%=      5-min Rain = 0
KLE1 180305Z 12008KT 27/15 A2994 RMK A01 T02650152  RH  050%=      5-min Rain = 0
KLE1 180306Z 12008KT 27/15 A2994 RMK A01 T02650152  RH  050%=      5-min Rain = 0
KLE1 180307Z 12009KT 27/15 A2994 RMK A01 T02650152  RH  050%=      5-min Rain = 0
KLE1 180308Z 12008KT 27/15 A2994 RMK A01 T02650152  RH  050%=      5-min Rain = 0
KLE1 180309Z 12009KT 27/15 A2995 RMK A01 T02650152  RH  050%=      5-min Rain = 0
KLE1 180310Z 13009KT 27/15 A2995 RMK A01 T02660152  RH  050%=      5-min Rain = 0
KLE1 180311Z 12009KT 27/15 A2995 RMK A01 T02660152  RH  049%=      5-min Rain = 0
KLE1 180312Z 12009KT 27/15 A2995 RMK A01 T02660152  RH  049%=      5-min Rain = 0
KLE1 180313Z 12010KT 27/15 A2995 RMK A01 T02660152  RH  049%=      5-min Rain = 0
KLE1 180314Z 12009KT 27/15 A2995 RMK A01 T02660152  RH  049%=      5-min Rain = 0
KLE1 180315Z 12010KT 27/15 A2995 RMK A01 T02670152  RH  049%=      5-min Rain = 0
KLE1 180316Z 12010KT 27/15 A2995 RMK A01 T02670152  RH  049%=      5-min Rain = 0
KLE1 180317Z 12010KT 27/15 A2995 RMK A01 T02680152  RH  049%=      5-min Rain = 0
KLE1 180318Z 12010KT 27/15 A2995 RMK A01 T02680152  RH  049%=      5-min Rain = 0
KLE1 180319Z 13010KT 27/15 A2995 RMK A01 T02680152  RH  049%=      5-min Rain = 0
KLE1 180320Z 13010KT 27/15 A2995 RMK A01 T02670152  RH  049%=      5-min Rain = 0
KLE1 180321Z 13010KT 27/15 A2995 RMK A01 T02670152  RH  049%=      5-min Rain = 0
KLE1 180322Z 13009KT 27/15 A2995 RMK A01 T02670153  RH  050%=      5-min Rain = 0
KLE1 180323Z 13010KT 27/15 A2995 RMK A01 T02670153  RH  050%=      5-min Rain = 0
KLE1 180324Z 13010KT 27/15 A2995 RMK A01 T02670153  RH  050%=      5-min Rain = 0
KLE1 180325Z 13009KT 27/15 A2995 RMK A01 T02660153  RH  050%=      5-min Rain = 0
KLE1 180326Z 13009KT 27/15 A2995 RMK A01 T02670153  RH  050%=      5-min Rain = 0
KLE1 180327Z 13009KT 27/15 A2995 RMK A01 T02660153  RH  050%=      5-min Rain = 0
KLE1 180328Z 13009KT 27/15 A2995 RMK A01 T02660153  RH  050%=      5-min Rain = 0
KLE1 180329Z 13008KT 27/15 A2995 RMK A01 T02650153  RH  050%=      5-min Rain = 0
KLE1 180330Z 13009KT 27/15 A2995 RMK A01 T02650153  RH  050%=      5-min Rain = 0
KLE1 180331Z 13009KT 27/15 A2995 RMK A01 T02650154  RH  050%=      5-min Rain = 0
KLE1 180332Z 13009KT 27/15 A2995 RMK A01 T02650153  RH  050%=      5-min Rain = 0
KLE1 180333Z 13009KT 27/15 A2995 RMK A01 T02650154  RH  050%=      5-min Rain = 0
KLE1 180334Z 13008KT 27/15 A2995 RMK A01 T02650154  RH  050%=      5-min Rain = 0
KLE1 180335Z 13009KT 27/15 A2995 RMK A01 T02650154  RH  050%=      5-min Rain = 0
KLE1 180336Z 13009KT 27/15 A2996 RMK A01 T02650154  RH  051%=      5-min Rain = 0
KLE1 180337Z 13009KT 27/15 A2996 RMK A01 T02650154  RH  051%=      5-min Rain = 0
KLE1 180338Z 13008KT 27/16 A2996 RMK A01 T02650155  RH  051%=      5-min Rain = 0
KLE1 180339Z 14009KT 26/15 A2996 RMK A01 T02640154  RH  051%=      5-min Rain = 0
KLE1 180340Z 14009KT 26/16 A2996 RMK A01 T02640155  RH  051%=      5-min Rain = 0
KLE1 180341Z 13009KT 26/16 A2996 RMK A01 T02640155  RH  051%=      5-min Rain = 0
KLE1 180342Z 13009KT 26/16 A2996 RMK A01 T02640155  RH  051%=      5-min Rain = 0
KLE1 180343Z 14009KT 26/16 A2996 RMK A01 T02640155  RH  051%=      5-min Rain = 0
KLE1 180344Z 14008KT 26/16 A2996 RMK A01 T02640155  RH  051%=      5-min Rain = 0
KLE1 180345Z 13009KT 26/16 A2996 RMK A01 T02640155  RH  051%=      5-min Rain = 0
KLE1 180346Z 13009KT 26/16 A2996 RMK A01 T02630155  RH  051%=      5-min Rain = 0
KLE1 180347Z 13009KT 26/16 A2996 RMK A01 T02630156  RH  052%=      5-min Rain = 0
KLE1 180348Z 14009KT 26/16 A2996 RMK A01 T02630155  RH  051%=      5-min Rain = 0
KLE1 180349Z 14009KT 26/16 A2996 RMK A01 T02630155  RH  051%=      5-min Rain = 0
KLE1 180350Z 14008KT 26/16 A2996 RMK A01 T02640156  RH  052%=      5-min Rain = 0
KLE1 180351Z 14008KT 26/16 A2996 RMK A01 T02630156  RH  052%=      5-min Rain = 0
KLE1 180352Z 14009KT 26/16 A2996 RMK A01 T02630156  RH  052%=      5-min Rain = 0
KLE1 180353Z 14009KT 26/16 A2996 RMK A01 T02630156  RH  052%=      5-min Rain = 0
KLE1 180354Z 13008KT 26/16 A2996 RMK A01 T02620156  RH  052%=      5-min Rain = 0
KLE1 180355Z 14009KT 26/16 A2996 RMK A01 T02620157  RH  052%=      5-min Rain = 0
KLE1 180356Z 14009KT 26/16 A2996 RMK A01 T02630157  RH  052%=      5-min Rain = 0
KLE1 180357Z 14008KT 26/16 A2996 RMK A01 T02630157  RH  052%=      5-min Rain = 0
KLE1 180358Z 14008KT 26/16 A2996 RMK A01 T02630157  RH  052%=      5-min Rain = 0
KLE1 180359Z 14009KT 26/16 A2996 RMK A01 T02630157  RH  052%=      5-min Rain = 0
KLE1 180400Z 14008KT 26/16 A2996 RMK A01 T02630157  RH  052%=      5-min Rain = 0
KLE1 180401Z 14009KT 26/16 A2996 RMK A01 T02630157  RH  052%=      5-min Rain = 0
KLE1 180402Z 14009KT 26/16 A2996 RMK A01 T02630157  RH  052%=      5-min Rain = 0
KLE1 180403Z 14009KT 26/16 A2996 RMK A01 T02630158  RH  052%=      5-min Rain = 0
KLE1 180404Z 14009KT 26/16 A2996 RMK A01 T02630158  RH  052%=      5-min Rain = 0
KLE1 180405Z 14009KT 26/16 A2996 RMK A01 T02640158  RH  052%=      5-min Rain = 0
KLE1 180406Z 14009KT 26/16 A2996 RMK A01 T02640158  RH  052%=      5-min Rain = 0
KLE1 180407Z 14009KT 26/16 A2996 RMK A01 T02640158  RH  052%=      5-min Rain = 0
KLE1 180408Z 14009KT 26/16 A2996 RMK A01 T02640158  RH  052%=      5-min Rain = 0
KLE1 180409Z 14010KT 26/16 A2996 RMK A01 T02640158  RH  052%=      5-min Rain = 0
KLE1 180410Z 14009KT 26/16 A2996 RMK A01 T02640158  RH  052%=      5-min Rain = 0
KLE1 180411Z 14009KT 26/16 A2996 RMK A01 T02640159  RH  052%=      5-min Rain = 0
KLE1 180412Z 14008KT 26/16 A2996 RMK A01 T02630158  RH  052%=      5-min Rain = 0
KLE1 180413Z 14009KT 26/16 A2996 RMK A01 T02630158  RH  053%=      5-min Rain = 0
KLE1 180414Z 14008KT 26/16 A2996 RMK A01 T02630159  RH  053%=      5-min Rain = 0
KLE1 180415Z 14008KT 26/16 A2996 RMK A01 T02630159  RH  053%=      5-min Rain = 0
KLE1 180416Z 14008KT 26/16 A2996 RMK A01 T02620159  RH  053%=      5-min Rain = 0
KLE1 180417Z 14008KT 26/16 A2996 RMK A01 T02620159  RH  053%=      5-min Rain = 0
KLE1 180418Z 14008KT 26/16 A2996 RMK A01 T02610159  RH  053%=      5-min Rain = 0
KLE1 180419Z 13008KT 26/16 A2996 RMK A01 T02600159  RH  053%=      5-min Rain = 0
KLE1 180420Z 13008KT 26/16 A2996 RMK A01 T02600159  RH  054%=      5-min Rain = 0
KLE1 180421Z 14007KT 26/16 A2996 RMK A01 T02590159  RH  054%=      5-min Rain = 0
KLE1 180422Z 14007KT 26/16 A2996 RMK A01 T02590159  RH  054%=      5-min Rain = 0
KLE1 180423Z 13007KT 26/16 A2996 RMK A01 T02580159  RH  054%=      5-min Rain = 0
KLE1 180424Z 14007KT 26/16 A2996 RMK A01 T02580159  RH  054%=      5-min Rain = 0
KLE1 180425Z 13007KT 26/16 A2996 RMK A01 T02570159  RH  055%=      5-min Rain = 0
KLE1 180426Z 13006KT 26/16 A2996 RMK A01 T02570159  RH  055%=      5-min Rain = 0
KLE1 180427Z 13006KT 26/16 A2996 RMK A01 T02570159  RH  055%=      5-min Rain = 0
KLE1 180428Z 13006KT 26/16 A2996 RMK A01 T02560159  RH  055%=      5-min Rain = 0
KLE1 180429Z 14006KT 26/16 A2996 RMK A01 T02550159  RH  055%=      5-min Rain = 0
KLE1 180430Z 14006KT 26/16 A2996 RMK A01 T02550159  RH  055%=      5-min Rain = 0
KLE1 180431Z 14006KT 25/16 A2996 RMK A01 T02540159  RH  056%=      5-min Rain = 0
KLE1 180432Z 14006KT 25/16 A2996 RMK A01 T02540159  RH  056%=      5-min Rain = 0
KLE1 180433Z 14006KT 25/16 A2996 RMK A01 T02540159  RH  056%=      5-min Rain = 0
KLE1 180434Z 14006KT 25/16 A2996 RMK A01 T02530159  RH  056%=      5-min Rain = 0
KLE1 180435Z 14006KT 25/16 A2996 RMK A01 T02520159  RH  056%=      5-min Rain = 0
KLE1 180436Z 14006KT 25/16 A2996 RMK A01 T02520159  RH  056%=      5-min Rain = 0
KLE1 180437Z 13006KT 25/16 A2996 RMK A01 T02520159  RH  056%=      5-min Rain = 0
KLE1 180438Z 13006KT 25/16 A2996 RMK A01 T02520159  RH  056%=      5-min Rain = 0
KLE1 180439Z 13006KT 25/16 A2996 RMK A01 T02520159  RH  056%=      5-min Rain = 0
KLE1 180440Z 13006KT 25/16 A2996 RMK A01 T02510159  RH  057%=      5-min Rain = 0
KLE1 180441Z 13006KT 25/16 A2996 RMK A01 T02510159  RH  057%=      5-min Rain = 0
KLE1 180442Z 13005KT 25/16 A2996 RMK A01 T02500159  RH  057%=      5-min Rain = 0
KLE1 180443Z 13005KT 25/16 A2996 RMK A01 T02500159  RH  057%=      5-min Rain = 0
KLE1 180444Z 13005KT 25/16 A2996 RMK A01 T02500159  RH  057%=      5-min Rain = 0
KLE1 180445Z 12005KT 25/16 A2996 RMK A01 T02490159  RH  057%=      5-min Rain = 0
KLE1 180446Z 12005KT 25/16 A2996 RMK A01 T02480158  RH  057%=      5-min Rain = 0
KLE1 180447Z 12005KT 25/16 A2996 RMK A01 T02470158  RH  057%=      5-min Rain = 0
KLE1 180448Z 12005KT 25/16 A2996 RMK A01 T02470159  RH  058%=      5-min Rain = 0
KLE1 180449Z 11005KT 25/16 A2996 RMK A01 T02460158  RH  058%=      5-min Rain = 0
KLE1 180450Z 11005KT 25/16 A2996 RMK A01 T02460158  RH  058%=      5-min Rain = 0
KLE1 180451Z 10004KT 25/16 A2996 RMK A01 T02450158  RH  058%=      5-min Rain = 0
KLE1 180452Z 09004KT 24/16 A2996 RMK A01 T02440157  RH  058%=      5-min Rain = 0
KLE1 180453Z 09004KT 24/16 A2996 RMK A01 T02430156  RH  058%=      5-min Rain = 0
KLE1 180454Z 09005KT 24/16 A2996 RMK A01 T02420156  RH  059%=      5-min Rain = 0
KLE1 180455Z 09006KT 24/16 A2996 RMK A01 T02410156  RH  059%=      5-min Rain = 0
KLE1 180456Z 09006KT 24/16 A2996 RMK A01 T02410156  RH  059%=      5-min Rain = 0
KLE1 180457Z 09005KT 24/16 A2996 RMK A01 T02400156  RH  059%=      5-min Rain = 0
KLE1 180458Z 09005KT 24/16 A2996 RMK A01 T02400156  RH  059%=      5-min Rain = 0
KLE1 180459Z 09005KT 24/16 A2996 RMK A01 T02390156  RH  059%=      5-min Rain = 0

Page generated in 0.0825 seconds.